| time (UTC) | temp F | wind direction | speed knots | gust knots | rain 1hr in | rain 24hr in | rain mn in | humidity % | barometer mb |
| 20260506134856 | 63 | 329 | 6.1 | 8.7 | 0.00 | 0.18 | 0.03 | 61 | 1010.7 |
| 20260506134818 | 64 | 13 | 6.1 | 9.6 | 0.00 | 0.18 | 0.03 | 58 | 1010.8 |
| 20260506134551 | 64 | 34 | 2.6 | 10.4 | 0.00 | 0.18 | 0.03 | 59 | 1010.7 |
| 20260506134507 | 64 | 247 | 3.5 | 10.4 | 0.00 | 0.18 | 0.03 | 57 | 1010.8 |
| 20260506134040 | 64 | 323 | 4.3 | 10.4 | 0.00 | 0.18 | 0.03 | 61 | 1010.8 |
| 20260506133943 | 64 | 307 | 6.1 | 10.4 | 0.00 | 0.18 | 0.03 | 61 | 1010.8 |
| 20260506133901 | 64 | 311 | 7.0 | 10.4 | 0.00 | 0.18 | 0.03 | 60 | 1010.8 |
| 20260506133816 | 64 | 328 | 6.1 | 10.4 | 0.00 | 0.18 | 0.03 | 61 | 1010.9 |
| 20260506133608 | 64 | 336 | 3.5 | 11.3 | 0.00 | 0.18 | 0.03 | 60 | 1010.9 |
| 20260506133533 | 64 | 324 | 7.8 | 10.4 | 0.00 | 0.18 | 0.03 | 61 | 1010.9 |
| 20260506133441 | 64 | 342 | 5.2 | 10.4 | 0.00 | 0.18 | 0.03 | 62 | 1010.8 |
| 20260506133401 | 64 | 348 | 2.6 | 9.6 | 0.00 | 0.18 | 0.03 | 65 | 1010.8 |
| 20260506133316 | 63 | 294 | 2.6 | 9.6 | 0.00 | 0.18 | 0.03 | 63 | 1010.9 |
| 20260506133027 | 62 | 280 | 3.5 | 9.6 | 0.00 | 0.18 | 0.03 | 63 | 1010.9 |
| 20260506132926 | 62 | 265 | 5.2 | 9.6 | 0.00 | 0.18 | 0.03 | 62 | 1010.9 |
| 20260506132827 | 62 | 314 | 4.3 | 9.6 | 0.00 | 0.18 | 0.03 | 64 | 1010.9 |
| 20260506132724 | 62 | 296 | 3.5 | 9.6 | 0.00 | 0.18 | 0.03 | 64 | 1010.9 |
| 20260506132625 | 62 | 305 | 5.2 | 9.6 | 0.00 | 0.18 | 0.03 | 62 | 1010.9 |
| 20260506132519 | 62 | 317 | 4.3 | 14.8 | 0.00 | 0.18 | 0.03 | 65 | 1010.9 |
| 20260506132420 | 62 | 300 | 5.2 | 14.8 | 0.00 | 0.18 | 0.03 | 65 | 1010.9 |
| 20260506132407 | 62 | 286 | 5.2 | 10.4 | 0.00 | 0.18 | 0.03 | 61 | 1011.0 |
| 20260506132328 | 62 | 277 | 6.1 | 14.8 | 0.00 | 0.18 | 0.03 | 63 | 1010.9 |
| 20260506132243 | 62 | 332 | 6.1 | 14.8 | 0.00 | 0.18 | 0.03 | 63 | 1010.9 |
| 20260506132201 | 62 | 291 | 7.0 | 14.8 | 0.00 | 0.18 | 0.03 | 65 | 1010.9 |
| 20260506132114 | 62 | 338 | 7.8 | 14.8 | 0.00 | 0.18 | 0.03 | 63 | 1011.0 |
| 20260506132032 | 62 | 282 | 6.1 | 14.8 | 0.00 | 0.18 | 0.03 | 64 | 1010.9 |
| 20260506131806 | 62 | 334 | 7.8 | 14.8 | 0.00 | 0.18 | 0.03 | 62 | 1010.9 |
| 20260506131724 | 62 | 302 | 6.1 | 14.8 | 0.00 | 0.18 | 0.03 | 63 | 1010.9 |
| 20260506131641 | 62 | 18 | 6.1 | 13.9 | 0.00 | 0.18 | 0.03 | 65 | 1010.9 |
| 20260506131418 | 62 | 319 | 7.8 | 13.9 | 0.00 | 0.18 | 0.03 | 62 | 1010.9 |
| 20260506131151 | 62 | 312 | 5.2 | 12.2 | 0.00 | 0.18 | 0.03 | 64 | 1010.9 |
| 20260506131108 | 62 | 311 | 4.3 | 9.6 | 0.00 | 0.18 | 0.03 | 64 | 1010.9 |
| 20260506131025 | 62 | 321 | 3.5 | 9.6 | 0.00 | 0.18 | 0.03 | 64 | 1011.0 |
| 20260506130558 | 63 | 332 | 4.3 | 10.4 | 0.00 | 0.18 | 0.03 | 61 | 1011.0 |
| 20260506130458 | 63 | 265 | 5.2 | 11.3 | 0.00 | 0.18 | 0.03 | 60 | 1010.9 |
| 20260506130439 | 63 | 11 | 2.6 | 13.0 | 0.00 | 0.18 | 0.03 | 63 | 1011.0 |
| 20260506130355 | 63 | 325 | 7.0 | 11.3 | 0.00 | 0.18 | 0.03 | 60 | 1010.9 |
| 20260506130304 | 64 | 305 | 6.1 | 11.3 | 0.00 | 0.18 | 0.03 | 60 | 1011.0 |
| 20260506130220 | 64 | 329 | 5.2 | 11.3 | 0.00 | 0.18 | 0.03 | 62 | 1011.0 |
| 20260506130137 | 64 | 319 | 5.2 | 11.3 | 0.00 | 0.18 | 0.03 | 65 | 1011.0 |
| 20260506130053 | 64 | 330 | 6.1 | 11.3 | 0.00 | 0.18 | 0.03 | 64 | 1011.0 |
| 20260506125849 | 63 | 287 | 7.0 | 11.3 | 0.00 | 0.18 | 0.03 | 63 | 1010.9 |
| 20260506125827 | 63 | 286 | 6.1 | 13.0 | 0.00 | 0.18 | 0.03 | 61 | 1011.0 |
| 20260506125749 | 63 | 307 | 7.8 | 11.3 | 0.00 | 0.18 | 0.03 | 61 | 1011.0 |
| 20260506125648 | 63 | 325 | 9.6 | 11.3 | 0.00 | 0.18 | 0.03 | 63 | 1011.0 |
| 20260506125630 | 63 | 334 | 6.1 | 13.0 | 0.00 | 0.18 | 0.03 | 59 | 1011.0 |
| 20260506125546 | 63 | 346 | 8.7 | 11.3 | 0.00 | 0.18 | 0.03 | 62 | 1011.0 |
| 20260506125442 | 63 | 346 | 7.8 | 11.3 | 0.00 | 0.18 | 0.03 | 62 | 1010.9 |
| 20260506125343 | 63 | 339 | 7.0 | 11.3 | 0.00 | 0.18 | 0.03 | 61 | 1010.9 |
| 20260506125245 | 63 | 22 | 6.1 | 11.3 | 0.00 | 0.18 | 0.03 | 59 | 1010.9 |
| 20260506125205 | 63 | 281 | 7.8 | 11.3 | 0.00 | 0.18 | 0.03 | 59 | 1011.0 |
| 20260506125122 | 64 | 328 | 7.8 | 11.3 | 0.00 | 0.18 | 0.03 | 59 | 1011.0 |
| 20260506124839 | 64 | 337 | 6.1 | 11.3 | 0.00 | 0.18 | 0.03 | 60 | 1010.9 |
| 20260506124750 | 64 | 312 | 6.1 | 11.3 | 0.00 | 0.18 | 0.03 | 59 | 1010.9 |
| 20260506124707 | 64 | 347 | 7.0 | 10.4 | 0.00 | 0.18 | 0.03 | 59 | 1010.9 |
| 20260506124625 | 64 | 350 | 5.2 | 12.2 | 0.00 | 0.18 | 0.03 | 59 | 1010.9 |
| 20260506124432 | 64 | 324 | 2.6 | 12.2 | 0.00 | 0.18 | 0.03 | 60 | 1011.0 |
| 20260506124331 | 64 | 234 | 2.6 | 12.2 | 0.00 | 0.18 | 0.03 | 65 | 1010.9 |
| 20260506124254 | 63 | 235 | 5.2 | 13.9 | 0.00 | 0.18 | 0.03 | 58 | 1011.3 |
| 20260506124230 | 63 | 317 | 3.5 | 12.2 | 0.00 | 0.18 | 0.03 | 60 | 1010.9 |
| 20260506124131 | 63 | 329 | 4.3 | 12.2 | 0.00 | 0.18 | 0.03 | 60 | 1010.9 |
| 20260506124038 | 62 | 286 | 6.1 | 12.2 | 0.00 | 0.18 | 0.03 | 64 | 1010.9 |
| 20260506123927 | 62 | 280 | 6.1 | 12.2 | 0.00 | 0.18 | 0.03 | 63 | 1010.9 |
| 20260506123825 | 62 | 298 | 6.1 | 12.2 | 0.00 | 0.18 | 0.03 | 62 | 1011.0 |
| 20260506123727 | 62 | 325 | 7.8 | 12.2 | 0.00 | 0.18 | 0.03 | 62 | 1011.0 |
| 20260506123627 | 62 | 300 | 7.0 | 12.2 | 0.00 | 0.18 | 0.03 | 63 | 1011.0 |
| 20260506123528 | 62 | 339 | 5.2 | 10.4 | 0.00 | 0.18 | 0.03 | 62 | 1010.9 |
| 20260506123425 | 62 | 239 | 6.1 | 10.4 | 0.00 | 0.18 | 0.03 | 66 | 1010.9 |
| 20260506123324 | 62 | 317 | 6.1 | 10.4 | 0.00 | 0.18 | 0.03 | 63 | 1010.8 |
| 20260506123254 | 62 | 325 | 7.8 | 11.3 | 0.00 | 0.18 | 0.03 | 66 | 1011.7 |
| 20260506123223 | 62 | 25 | 4.3 | 9.6 | 0.00 | 0.18 | 0.03 | 61 | 1010.9 |
| 20260506123122 | 62 | 31 | 5.2 | 10.4 | 0.00 | 0.18 | 0.03 | 65 | 1010.9 |
| 20260506123037 | 61 | 321 | 6.1 | 10.4 | 0.00 | 0.18 | 0.03 | 64 | 1010.9 |
| 20260506122957 | 61 | 317 | 3.5 | 10.4 | 0.00 | 0.18 | 0.03 | 61 | 1011.0 |
| 20260506122915 | 61 | 313 | 3.5 | 10.4 | 0.00 | 0.18 | 0.03 | 61 | 1010.9 |
| 20260506122717 | 62 | 316 | 5.2 | 13.9 | 0.00 | 0.18 | 0.03 | 60 | 1010.9 |
| 20260506122705 | 61 | 312 | 7.0 | 12.2 | 0.00 | 0.18 | 0.03 | 67 | 1011.7 |
| 20260506122613 | 62 | 281 | 6.1 | 13.9 | 0.00 | 0.18 | 0.03 | 59 | 1011.0 |
| 20260506122514 | 62 | 313 | 7.8 | 13.9 | 0.00 | 0.18 | 0.03 | 58 | 1011.0 |
| 20260506122410 | 62 | 326 | 7.8 | 13.9 | 0.00 | 0.18 | 0.03 | 59 | 1011.0 |
| 20260506122309 | 62 | 296 | 7.0 | 13.9 | 0.00 | 0.18 | 0.03 | 60 | 1010.9 |
| 20260506122209 | 63 | 307 | 7.0 | 13.9 | 0.00 | 0.18 | 0.03 | 58 | 1011.0 |
| 20260506122108 | 63 | 309 | 7.8 | 13.9 | 0.00 | 0.18 | 0.03 | 59 | 1010.9 |
| 20260506122013 | 63 | 293 | 9.6 | 13.9 | 0.00 | 0.18 | 0.03 | 59 | 1011.0 |
| 20260506121929 | 64 | 338 | 7.0 | 13.9 | 0.00 | 0.18 | 0.03 | 59 | 1011.0 |
| 20260506121843 | 64 | 325 | 3.5 | 13.9 | 0.00 | 0.18 | 0.03 | 62 | 1011.0 |
| 20260506121626 | 61 | 23 | 7.0 | 11.3 | 0.00 | 0.18 | 0.03 | 63 | 1011.9 |
| 20260506121559 | 64 | 13 | 4.3 | 11.3 | 0.00 | 0.18 | 0.03 | 59 | 1010.9 |
| 20260506121459 | 64 | 215 | 6.1 | 11.3 | 0.00 | 0.18 | 0.03 | 57 | 1010.8 |
| 20260506121356 | 64 | 277 | 6.1 | 11.3 | 0.00 | 0.18 | 0.03 | 60 | 1010.8 |
| 20260506121257 | 64 | 329 | 5.2 | 11.3 | 0.00 | 0.18 | 0.03 | 59 | 1010.9 |
| 20260506121244 | 60 | 321 | 5.2 | 11.3 | 0.00 | 0.18 | 0.03 | 67 | 1012.0 |
| 20260506121154 | 64 | 279 | 6.1 | 11.3 | 0.00 | 0.18 | 0.03 | 58 | 1011.0 |
| 20260506121111 | 64 | 305 | 6.1 | 11.3 | 0.00 | 0.18 | 0.03 | 62 | 1010.9 |
| 20260506121024 | 64 | 279 | 5.2 | 11.3 | 0.00 | 0.18 | 0.03 | 61 | 1011.0 |
| 20260506120939 | 64 | 342 | 3.5 | 8.7 | 0.00 | 0.18 | 0.03 | 61 | 1010.9 |
| 20260506120749 | 64 | 321 | 2.6 | 9.6 | 0.00 | 0.18 | 0.03 | 62 | 1010.9 |
| 20260506120646 | 64 | 309 | 2.6 | 9.6 | 0.00 | 0.18 | 0.03 | 57 | 1010.9 |
| 20260506120557 | 64 | 51 | 2.6 | 9.6 | 0.00 | 0.18 | 0.03 | 62 | 1010.9 |
| 20260506120514 | 64 | 225 | 2.6 | 9.6 | 0.00 | 0.18 | 0.03 | 63 | 1010.9 |
| 20260506120433 | 63 | 312 | 3.5 | 9.6 | 0.00 | 0.18 | 0.03 | 66 | 1011.0 |
| 20260506120345 | 62 | 229 | 5.2 | 9.6 | 0.00 | 0.18 | 0.03 | 65 | 1011.0 |
| 20260506120140 | 61 | 309 | 5.2 | 9.6 | 0.00 | 0.18 | 0.03 | 65 | 1011.0 |
| 20260506120118 | 61 | 327 | 7.8 | 11.3 | 0.00 | 0.18 | 0.03 | 64 | 1012.0 |
| 20260506120043 | 61 | 309 | 6.1 | 10.4 | 0.00 | 0.18 | 0.03 | 63 | 1011.0 |
| 20260506115947 | 61 | 301 | 6.1 | 10.4 | 0.00 | 0.18 | 0.03 | 61 | 1011.0 |
| 20260506115904 | 61 | 328 | 5.2 | 10.4 | 0.00 | 0.18 | 0.03 | 63 | 1011.0 |
| 20260506115821 | 62 | 321 | 3.5 | 10.4 | 0.00 | 0.18 | 0.03 | 62 | 1011.0 |
| 20260506115532 | 62 | 270 | 7.0 | 12.2 | 0.00 | 0.18 | 0.03 | 61 | 1011.0 |
| 20260506115442 | 62 | 324 | 7.0 | 13.0 | 0.00 | 0.18 | 0.03 | 62 | 1011.0 |
| 20260506115359 | 62 | 339 | 7.0 | 13.0 | 0.00 | 0.18 | 0.03 | 61 | 1011.0 |
| 20260506115314 | 63 | 332 | 7.0 | 13.0 | 0.00 | 0.18 | 0.03 | 61 | 1011.0 |
| 20260506115228 | 63 | 22 | 4.3 | 13.0 | 0.00 | 0.18 | 0.03 | 59 | 1010.9 |
| 20260506114956 | 63 | 325 | 5.2 | 13.0 | 0.00 | 0.18 | 0.03 | 61 | 1010.9 |
| 20260506114914 | 63 | 339 | 7.8 | 13.0 | 0.00 | 0.18 | 0.03 | 64 | 1011.0 |
| 20260506114645 | 63 | 337 | 8.7 | 13.0 | 0.00 | 0.18 | 0.03 | 60 | 1011.0 |
| 20260506114601 | 63 | 337 | 7.8 | 13.0 | 0.00 | 0.18 | 0.03 | 61 | 1011.0 |
| 20260506114328 | 63 | 315 | 7.0 | 13.0 | 0.00 | 0.18 | 0.03 | 59 | 1011.1 |
| 20260506114239 | 63 | 312 | 6.1 | 13.0 | 0.00 | 0.18 | 0.03 | 61 | 1011.1 |
| 20260506114158 | 63 | 330 | 5.2 | 13.0 | 0.00 | 0.18 | 0.03 | 63 | 1011.2 |
| 20260506113911 | 63 | 306 | 5.2 | 13.0 | 0.00 | 0.18 | 0.03 | 58 | 1011.2 |
| 20260506113810 | 64 | 306 | 7.8 | 13.0 | 0.00 | 0.18 | 0.03 | 57 | 1011.2 |
| 20260506113709 | 64 | 273 | 7.8 | 13.0 | 0.00 | 0.18 | 0.03 | 56 | 1011.2 |
| 20260506113609 | 64 | 304 | 7.0 | 13.0 | 0.00 | 0.18 | 0.03 | 58 | 1011.2 |
| 20260506113506 | 64 | 321 | 6.1 | 12.2 | 0.00 | 0.18 | 0.03 | 60 | 1011.2 |
| 20260506113406 | 64 | 316 | 4.3 | 13.0 | 0.00 | 0.18 | 0.03 | 60 | 1011.2 |
| 20260506113305 | 64 | 281 | 5.2 | 13.0 | 0.00 | 0.18 | 0.03 | 57 | 1011.2 |
| 20260506113204 | 64 | 295 | 6.1 | 13.0 | 0.00 | 0.18 | 0.03 | 58 | 1011.2 |
| 20260506113121 | 64 | 255 | 4.3 | 13.0 | 0.00 | 0.18 | 0.03 | 59 | 1011.3 |
| 20260506113022 | 64 | 311 | 1.7 | 13.0 | 0.00 | 0.18 | 0.03 | 63 | 1011.3 |
| 20260506112940 | 64 | 282 | 4.3 | 13.0 | 0.00 | 0.18 | 0.03 | 62 | 1011.3 |
| 20260506112655 | 63 | 344 | 9.6 | 13.0 | 0.00 | 0.18 | 0.03 | 62 | 1011.3 |
| 20260506112630 | 60 | 221 | 3.5 | 13.0 | 0.00 | 0.18 | 0.03 | 65 | 1012.1 |
| 20260506112559 | 63 | 347 | 7.8 | 13.0 | 0.00 | 0.18 | 0.03 | 62 | 1011.3 |
| 20260506112516 | 63 | 335 | 5.2 | 13.0 | 0.00 | 0.18 | 0.03 | 60 | 1011.3 |
| 20260506112434 | 63 | 314 | 6.1 | 13.9 | 0.00 | 0.18 | 0.03 | 60 | 1011.3 |
| 20260506112150 | 63 | 284 | 4.3 | 13.9 | 0.00 | 0.18 | 0.03 | 63 | 1011.5 |
| 20260506112055 | 63 | 230 | 5.2 | 13.9 | 0.00 | 0.18 | 0.03 | 61 | 1011.5 |
| 20260506111957 | 63 | 277 | 5.2 | 13.9 | 0.00 | 0.18 | 0.03 | 61 | 1011.3 |
| 20260506111919 | 62 | 281 | 7.0 | 13.9 | 0.00 | 0.18 | 0.03 | 61 | 1011.5 |
| 20260506111834 | 63 | 291 | 7.8 | 13.9 | 0.00 | 0.18 | 0.03 | 61 | 1011.5 |
| 20260506111638 | 63 | 325 | 8.7 | 13.9 | 0.00 | 0.18 | 0.03 | 58 | 1011.6 |
| 20260506111539 | 63 | 313 | 7.8 | 13.9 | 0.00 | 0.18 | 0.03 | 57 | 1011.6 |
| 20260506111437 | 64 | 301 | 4.3 | 13.0 | 0.00 | 0.18 | 0.03 | 58 | 1011.6 |
| 20260506111337 | 64 | 317 | 3.5 | 12.2 | 0.00 | 0.18 | 0.03 | 64 | 1011.6 |
| 20260506111235 | 63 | 247 | 4.3 | 12.2 | 0.00 | 0.18 | 0.03 | 62 | 1011.6 |
| 20260506111133 | 63 | 265 | 4.3 | 12.2 | 0.00 | 0.18 | 0.03 | 64 | 1011.6 |
| 20260506111031 | 62 | 267 | 4.3 | 12.2 | 0.00 | 0.18 | 0.03 | 66 | 1011.6 |
| 20260506110932 | 62 | 341 | 5.2 | 12.2 | 0.00 | 0.18 | 0.03 | 61 | 1011.6 |
| 20260506110839 | 62 | 323 | 7.8 | 12.2 | 0.00 | 0.18 | 0.03 | 64 | 1011.6 |
| 20260506110754 | 62 | 324 | 6.1 | 12.2 | 0.00 | 0.18 | 0.03 | 62 | 1011.6 |
| 20260506110708 | 62 | 331 | 3.5 | 12.2 | 0.00 | 0.18 | 0.03 | 64 | 1011.6 |
| 20260506110615 | 62 | 305 | 2.6 | 11.3 | 0.00 | 0.18 | 0.03 | 63 | 1011.6 |
| 20260506110518 | 62 | 309 | 3.5 | 11.3 | 0.00 | 0.18 | 0.03 | 62 | 1011.6 |
| 20260506110436 | 62 | 255 | 4.3 | 11.3 | 0.00 | 0.18 | 0.03 | 62 | 1011.7 |
| 20260506110352 | 62 | 292 | 5.2 | 11.3 | 0.00 | 0.18 | 0.03 | 65 | 1011.7 |
| 20260506110307 | 62 | 317 | 7.8 | 11.3 | 0.00 | 0.18 | 0.03 | 63 | 1011.6 |
| 20260506110029 | 62 | 303 | 8.7 | 11.3 | 0.00 | 0.18 | 0.03 | 65 | 1011.7 |
| 20260506105947 | 62 | 306 | 7.8 | 11.3 | 0.00 | 0.18 | 0.03 | 65 | 1011.6 |
| 20260506105518 | 61 | 346 | 7.0 | 12.2 | 0.00 | 0.18 | 0.03 | 67 | 1011.6 |
| 20260506105415 | 61 | 27 | 5.2 | 12.2 | 0.00 | 0.18 | 0.03 | 67 | 1011.6 |
| 20260506105315 | 60 | 11 | 3.5 | 12.2 | 0.00 | 0.18 | 0.03 | 67 | 1011.7 |
| 20260506105213 | 60 | 11 | 5.2 | 12.2 | 0.00 | 0.18 | 0.03 | 65 | 1011.7 |
| 20260506105112 | 60 | 304 | 7.0 | 12.2 | 0.00 | 0.18 | 0.03 | 65 | 1011.8 |
| 20260506105013 | 60 | 310 | 7.0 | 12.2 | 0.00 | 0.18 | 0.03 | 65 | 1011.8 |
| 20260506104909 | 61 | 304 | 7.8 | 12.2 | 0.00 | 0.18 | 0.03 | 66 | 1011.8 |
| 20260506104810 | 61 | 331 | 6.1 | 12.2 | 0.00 | 0.18 | 0.03 | 66 | 1011.8 |
| 20260506104712 | 61 | 9 | 6.1 | 12.2 | 0.00 | 0.18 | 0.03 | 66 | 1011.8 |
| 20260506104609 | 61 | 350 | 7.0 | 12.2 | 0.00 | 0.18 | 0.03 | 65 | 1011.8 |
| 20260506104508 | 61 | 288 | 7.8 | 12.2 | 0.00 | 0.18 | 0.03 | 67 | 1011.8 |
| 20260506104405 | 61 | 337 | 9.6 | 12.2 | 0.00 | 0.18 | 0.03 | 66 | 1011.8 |
| 20260506104318 | 61 | 323 | 6.1 | 12.2 | 0.00 | 0.18 | 0.03 | 63 | 1011.8 |
| 20260506104230 | 61 | 295 | 5.2 | 11.3 | 0.00 | 0.18 | 0.03 | 64 | 1011.9 |
| 20260506104148 | 61 | 294 | 7.0 | 11.3 | 0.00 | 0.18 | 0.03 | 62 | 1011.8 |
| 20260506103859 | 62 | 316 | 6.1 | 11.3 | 0.00 | 0.18 | 0.03 | 64 | 1011.9 |
| 20260506103805 | 62 | 286 | 5.2 | 11.3 | 0.00 | 0.18 | 0.03 | 67 | 1011.9 |
| 20260506103719 | 61 | 324 | 6.1 | 11.3 | 0.00 | 0.18 | 0.03 | 67 | 1011.9 |
| 20260506103640 | 61 | 9 | 7.8 | 11.3 | 0.00 | 0.18 | 0.03 | 67 | 1011.9 |
| 20260506103550 | 61 | 304 | 8.7 | 11.3 | 0.00 | 0.18 | 0.03 | 68 | 1012.0 |
| 20260506103506 | 60 | 319 | 6.1 | 11.3 | 0.00 | 0.18 | 0.03 | 66 | 1011.9 |
| 20260506103424 | 60 | 328 | 4.3 | 11.3 | 0.00 | 0.18 | 0.03 | 69 | 1012.0 |
| 20260506103156 | 60 | 319 | 6.1 | 11.3 | 0.00 | 0.18 | 0.03 | 66 | 1012.0 |
| 20260506102922 | 60 | 280 | 7.0 | 11.3 | 0.00 | 0.18 | 0.03 | 67 | 1012.0 |
| 20260506102842 | 60 | 310 | 7.0 | 11.3 | 0.00 | 0.18 | 0.03 | 67 | 1012.0 |
| 20260506102755 | 60 | 321 | 7.8 | 11.3 | 0.00 | 0.18 | 0.03 | 67 | 1012.0 |
| 20260506102524 | 60 | 302 | 8.7 | 11.3 | 0.00 | 0.18 | 0.03 | 65 | 1011.9 |
| 20260506102236 | 61 | 350 | 7.0 | 11.3 | 0.00 | 0.18 | 0.03 | 64 | 1012.0 |
| 20260506102136 | 61 | 321 | 6.1 | 9.6 | 0.00 | 0.18 | 0.03 | 64 | 1012.0 |
| 20260506102036 | 61 | 304 | 6.1 | 9.6 | 0.00 | 0.18 | 0.03 | 65 | 1012.0 |
| 20260506101934 | 62 | 314 | 3.5 | 9.6 | 0.00 | 0.18 | 0.03 | 64 | 1011.9 |
| 20260506101832 | 62 | 300 | 4.3 | 9.6 | 0.00 | 0.18 | 0.03 | 65 | 1012.0 |
| 20260506101731 | 62 | 221 | 5.2 | 11.3 | 0.00 | 0.18 | 0.03 | 66 | 1012.0 |
| 20260506101631 | 62 | 327 | 3.5 | 11.3 | 0.00 | 0.18 | 0.03 | 66 | 1011.9 |
| 20260506101610 | 57 | 275 | 5.2 | 10.4 | 0.00 | 0.18 | 0.03 | 71 | 1012.1 |
| 20260506101528 | 62 | 271 | 2.6 | 11.3 | 0.00 | 0.18 | 0.03 | 63 | 1011.9 |
| 20260506101503 | 57 | 281 | 3.5 | 10.4 | 0.00 | 0.18 | 0.03 | 74 | 1012.0 |
| 20260506101426 | 62 | 303 | 2.6 | 11.3 | 0.00 | 0.18 | 0.03 | 68 | 1011.9 |
| 20260506101346 | 57 | 230 | 7.0 | 11.3 | 0.00 | 0.18 | 0.03 | 74 | 1012.1 |
| 20260506101325 | 61 | 232 | 2.6 | 11.3 | 0.00 | 0.18 | 0.03 | 68 | 1012.0 |
| 20260506101224 | 61 | 315 | 3.5 | 11.3 | 0.00 | 0.18 | 0.03 | 65 | 1012.0 |
| 20260506101123 | 61 | 205 | 5.2 | 11.3 | 0.00 | 0.18 | 0.03 | 63 | 1012.0 |
| 20260506101027 | 61 | 301 | 7.0 | 11.3 | 0.00 | 0.18 | 0.03 | 66 | 1012.0 |
| 20260506100941 | 61 | 330 | 5.2 | 11.3 | 0.00 | 0.18 | 0.03 | 64 | 1012.0 |
| 20260506100859 | 61 | 344 | 5.2 | 8.7 | 0.00 | 0.18 | 0.03 | 62 | 1012.0 |
| 20260506100815 | 61 | 277 | 5.2 | 8.7 | 0.00 | 0.18 | 0.03 | 62 | 1012.0 |
| 20260506100618 | 61 | 292 | 4.3 | 8.7 | 0.00 | 0.18 | 0.03 | 67 | 1012.1 |
| 20260506100518 | 61 | 192 | 4.3 | 8.7 | 0.00 | 0.18 | 0.03 | 64 | 1012.0 |
| 20260506100422 | 61 | 314 | 5.2 | 8.7 | 0.00 | 0.18 | 0.03 | 64 | 1012.0 |
| 20260506100340 | 61 | 297 | 4.3 | 10.4 | 0.00 | 0.18 | 0.03 | 65 | 1012.0 |
| 20260506100256 | 61 | 297 | 2.6 | 10.4 | 0.00 | 0.18 | 0.03 | 66 | 1012.1 |
| 20260506100158 | 61 | 309 | 3.5 | 10.4 | 0.00 | 0.18 | 0.03 | 63 | 1012.1 |
| 20260506100050 | 61 | 311 | 4.3 | 11.3 | 0.00 | 0.18 | 0.03 | 63 | 1012.1 |
| 20260506095950 | 61 | 293 | 2.6 | 13.0 | 0.00 | 0.18 | 0.03 | 65 | 1012.1 |
| 20260506095910 | 61 | 268 | 1.7 | 13.0 | 0.00 | 0.18 | 0.03 | 67 | 1012.1 |
| 20260506095643 | 60 | 313 | 6.1 | 13.0 | 0.00 | 0.18 | 0.03 | 67 | 1012.0 |
| 20260506095603 | 60 | 9 | 7.0 | 13.0 | 0.00 | 0.18 | 0.03 | 67 | 1012.0 |
| 20260506095521 | 61 | 344 | 5.2 | 13.0 | 0.00 | 0.18 | 0.03 | 69 | 1012.1 |
| 20260506095252 | 61 | 333 | 8.7 | 13.0 | 0.00 | 0.18 | 0.03 | 65 | 1012.1 |
| 20260506095102 | 61 | 282 | 7.0 | 13.0 | 0.00 | 0.18 | 0.03 | 66 | 1012.0 |
| 20260506095018 | 57 | 238 | 5.2 | 8.7 | 0.00 | 0.18 | 0.03 | 72 | 1012.0 |
| 20260506095000 | 61 | 304 | 5.2 | 13.0 | 0.00 | 0.18 | 0.03 | 69 | 1012.0 |
| 20260506094859 | 61 | 305 | 5.2 | 9.6 | 0.00 | 0.18 | 0.03 | 66 | 1012.1 |
| 20260506094758 | 61 | 303 | 3.5 | 9.6 | 0.00 | 0.18 | 0.03 | 67 | 1012.1 |
| 20260506094657 | 61 | 333 | 2.6 | 8.7 | 0.00 | 0.18 | 0.03 | 69 | 1012.1 |
| 20260506094558 | 61 | 309 | 3.5 | 9.6 | 0.00 | 0.18 | 0.03 | 67 | 1012.2 |
| 20260506094542 | 56 | 265 | 7.0 | 13.0 | 0.00 | 0.18 | 0.03 | 74 | 1012.0 |
| 20260506094455 | 61 | 284 | 4.3 | 9.6 | 0.00 | 0.18 | 0.03 | 70 | 1012.1 |
| 20260506094356 | 61 | 304 | 3.5 | 9.6 | 0.00 | 0.18 | 0.03 | 70 | 1012.1 |
| 20260506094253 | 60 | 324 | 1.7 | 9.6 | 0.00 | 0.18 | 0.03 | 68 | 1012.1 |
| 20260506094228 | 55 | 312 | 4.3 | 11.3 | 0.00 | 0.18 | 0.03 | 76 | 1012.0 |
| 20260506094151 | 60 | 324 | 1.7 | 9.6 | 0.00 | 0.18 | 0.03 | 68 | 1012.2 |
| 20260506094102 | 55 | 297 | 5.2 | 11.3 | 0.00 | 0.18 | 0.03 | 74 | 1012.0 |
| 20260506094050 | 60 | 309 | 1.7 | 9.6 | 0.00 | 0.18 | 0.03 | 68 | 1012.1 |
| 20260506093949 | 60 | 232 | 2.6 | 9.6 | 0.00 | 0.18 | 0.03 | 70 | 1012.1 |
| 20260506093907 | 56 | 265 | 5.2 | 11.3 | 0.00 | 0.18 | 0.03 | 72 | 1012.0 |
| 20260506093848 | 60 | 238 | 5.2 | 9.6 | 0.00 | 0.18 | 0.03 | 72 | 1012.2 |
| 20260506093746 | 60 | 241 | 7.8 | 9.6 | 0.00 | 0.18 | 0.03 | 69 | 1012.1 |
| 20260506093648 | 60 | 311 | 7.0 | 9.6 | 0.00 | 0.18 | 0.03 | 69 | 1012.1 |
| 20260506093545 | 60 | 323 | 6.1 | 9.6 | 0.00 | 0.18 | 0.03 | 68 | 1012.0 |
| 20260506093513 | 55 | 338 | 6.1 | 10.4 | 0.00 | 0.18 | 0.03 | 76 | 1012.0 |
| 20260506093436 | 60 | 296 | 4.3 | 9.6 | 0.00 | 0.18 | 0.03 | 67 | 1012.1 |
| 20260506093334 | 60 | 294 | 3.5 | 8.7 | 0.00 | 0.18 | 0.03 | 68 | 1012.0 |
| 20260506093237 | 60 | 282 | 2.6 | 8.7 | 0.00 | 0.18 | 0.03 | 68 | 1012.0 |
| 20260506093224 | 55 | 232 | 4.3 | 13.0 | 0.00 | 0.18 | 0.03 | 77 | 1012.0 |
| 20260506093154 | 55 | 309 | 4.3 | 13.0 | 0.00 | 0.18 | 0.03 | 75 | 1012.0 |
| 20260506093133 | 60 | 286 | 2.6 | 8.7 | 0.00 | 0.18 | 0.03 | 69 | 1012.0 |
| 20260506093102 | 55 | 268 | 7.0 | 13.0 | 0.00 | 0.18 | 0.03 | 76 | 1011.9 |
| 20260506093033 | 60 | 208 | 3.5 | 8.7 | 0.00 | 0.18 | 0.03 | 69 | 1012.0 |
| 20260506092932 | 60 | 270 | 4.3 | 8.7 | 0.00 | 0.18 | 0.03 | 68 | 1012.0 |
| 20260506092919 | 55 | 265 | 4.3 | 12.2 | 0.00 | 0.18 | 0.03 | 76 | 1012.0 |
| 20260506092830 | 60 | 296 | 3.5 | 8.7 | 0.00 | 0.18 | 0.03 | 68 | 1012.0 |
| 20260506092729 | 60 | 257 | 3.5 | 8.7 | 0.00 | 0.18 | 0.03 | 67 | 1012.1 |
| 20260506092627 | 60 | 291 | 3.5 | 9.6 | 0.00 | 0.18 | 0.03 | 69 | 1012.0 |
| 20260506092526 | 59 | 300 | 2.6 | 9.6 | 0.00 | 0.18 | 0.03 | 70 | 1012.1 |
| 20260506092517 | 54 | 277 | 3.5 | 7.8 | 0.00 | 0.18 | 0.03 | 81 | 1012.0 |
| 20260506092446 | 54 | 287 | 3.5 | 7.8 | 0.00 | 0.18 | 0.03 | 80 | 1011.9 |
| 20260506092423 | 59 | 294 | 3.5 | 9.6 | 0.00 | 0.18 | 0.03 | 70 | 1012.0 |
| 20260506092322 | 59 | 259 | 3.5 | 9.6 | 0.00 | 0.18 | 0.03 | 70 | 1012.0 |
| 20260506092221 | 59 | 255 | 4.3 | 9.6 | 0.00 | 0.18 | 0.03 | 70 | 1012.1 |
| 20260506092120 | 59 | 309 | 3.5 | 9.6 | 0.00 | 0.18 | 0.03 | 71 | 1012.0 |
| 20260506092055 | 52 | 196 | 2.6 | 7.0 | 0.00 | 0.18 | 0.03 | 87 | 1011.9 |
| 20260506092018 | 59 | 238 | 3.5 | 9.6 | 0.00 | 0.18 | 0.03 | 72 | 1012.0 |
| 20260506091951 | 52 | 284 | 2.6 | 7.0 | 0.00 | 0.18 | 0.03 | 87 | 1011.9 |
| 20260506091920 | 59 | 330 | 6.1 | 9.6 | 0.00 | 0.18 | 0.03 | 72 | 1012.0 |
| 20260506091817 | 59 | 323 | 7.0 | 9.6 | 0.00 | 0.18 | 0.03 | 69 | 1011.9 |
| 20260506091717 | 59 | 13 | 5.2 | 9.6 | 0.00 | 0.18 | 0.03 | 70 | 1012.0 |
| 20260506091619 | 59 | 336 | 5.2 | 9.6 | 0.00 | 0.18 | 0.03 | 71 | 1012.0 |
| 20260506091517 | 59 | 279 | 4.3 | 9.6 | 0.00 | 0.18 | 0.03 | 70 | 1012.0 |
| 20260506091447 | 52 | 292 | 1.7 | 6.1 | 0.00 | 0.18 | 0.03 | 88 | 1011.9 |
| 20260506091414 | 59 | 336 | 3.5 | 8.7 | 0.00 | 0.18 | 0.03 | 70 | 1012.1 |
| 20260506091314 | 59 | 329 | 3.5 | 8.7 | 0.00 | 0.18 | 0.03 | 71 | 1012.0 |
| 20260506091214 | 58 | 288 | 2.6 | 8.7 | 0.00 | 0.18 | 0.03 | 73 | 1012.0 |
| 20260506091112 | 58 | 306 | 3.5 | 8.7 | 0.00 | 0.18 | 0.03 | 70 | 1012.1 |
| 20260506091014 | 58 | 44 | 2.6 | 8.7 | 0.00 | 0.18 | 0.03 | 70 | 1012.1 |
| 20260506090908 | 58 | 51 | 3.5 | 8.7 | 0.00 | 0.18 | 0.03 | 70 | 1012.1 |
| 20260506090807 | 58 | 302 | 5.2 | 8.7 | 0.00 | 0.18 | 0.03 | 70 | 1012.1 |
| 20260506090723 | 51 | 307 | 2.6 | 7.0 | 0.00 | 0.18 | 0.03 | 91 | 1012.0 |
| 20260506090704 | 59 | 319 | 7.0 | 8.7 | 0.00 | 0.18 | 0.03 | 71 | 1012.1 |
| 20260506090603 | 59 | 319 | 7.0 | 8.7 | 0.00 | 0.18 | 0.03 | 72 | 1012.0 |
| 20260506090510 | 59 | 314 | 5.2 | 8.7 | 0.00 | 0.18 | 0.03 | 72 | 1012.0 |
| 20260506090450 | 51 | 247 | 1.7 | 7.0 | 0.00 | 0.18 | 0.03 | 91 | 1011.9 |
| 20260506090403 | 58 | 315 | 3.5 | 8.7 | 0.00 | 0.18 | 0.03 | 73 | 1012.0 |
| 20260506090351 | 51 | 231 | 2.6 | 7.0 | 0.00 | 0.18 | 0.03 | 91 | 1012.0 |
| 20260506090304 | 58 | 337 | 3.5 | 8.7 | 0.00 | 0.18 | 0.03 | 70 | 1012.1 |
| 20260506090202 | 58 | 26 | 1.7 | 8.7 | 0.00 | 0.18 | 0.03 | 71 | 1012.0 |
| 20260506090101 | 58 | 344 | 1.7 | 8.7 | 0.00 | 0.18 | 0.03 | 70 | 1012.0 |
| 20260506090000 | 58 | 32 | 3.5 | 8.7 | 0.00 | 0.18 | 0.03 | 70 | 1012.1 |
| 20260506085854 | 58 | 303 | 4.3 | 8.7 | 0.00 | 0.18 | 0.03 | 73 | 1012.1 |
| 20260506085839 | 51 | 282 | 2.6 | 7.0 | 0.00 | 0.18 | 0.03 | 92 | 1011.9 |
| 20260506085753 | 58 | 233 | 4.3 | 8.7 | 0.00 | 0.18 | 0.03 | 69 | 1012.1 |
| 20260506085655 | 58 | 332 | 2.6 | 8.7 | 0.00 | 0.18 | 0.03 | 73 | 1012.1 |
| 20260506085645 | 51 | 307 | 1.7 | 6.1 | 0.00 | 0.18 | 0.03 | 92 | 1011.8 |
| 20260506085553 | 58 | 333 | 2.6 | 9.6 | 0.00 | 0.18 | 0.03 | 72 | 1012.1 |
| 20260506085538 | 51 | 291 | 1.7 | 4.3 | 0.00 | 0.18 | 0.03 | 92 | 1011.8 |
| 20260506085512 | 51 | 238 | 1.7 | 4.3 | 0.00 | 0.18 | 0.03 | 92 | 1011.9 |
| 20260506085451 | 58 | 202 | 3.5 | 10.4 | 0.00 | 0.18 | 0.03 | 71 | 1012.1 |
| 20260506085350 | 58 | 297 | 5.2 | 10.4 | 0.00 | 0.18 | 0.03 | 71 | 1012.1 |
| 20260506085246 | 58 | 13 | 3.5 | 10.4 | 0.00 | 0.18 | 0.03 | 72 | 1012.1 |
| 20260506085146 | 58 | 300 | 1.7 | 10.4 | 0.00 | 0.18 | 0.03 | 72 | 1012.1 |
| 20260506085117 | 50 | 254 | 2.6 | 7.0 | 0.00 | 0.18 | 0.03 | 93 | 1011.8 |
| 20260506085048 | 58 | 257 | 1.7 | 10.4 | 0.00 | 0.18 | 0.03 | 74 | 1012.1 |
| 20260506084958 | 57 | 178 | 3.5 | 10.4 | 0.00 | 0.18 | 0.03 | 71 | 1012.1 |
| 20260506084916 | 57 | 279 | 5.2 | 10.4 | 0.00 | 0.18 | 0.03 | 71 | 1012.1 |
| 20260506084834 | 57 | 319 | 6.1 | 10.4 | 0.00 | 0.18 | 0.03 | 71 | 1012.0 |
| 20260506084749 | 58 | 347 | 6.1 | 10.4 | 0.00 | 0.18 | 0.03 | 72 | 1012.1 |
| 20260506084517 | 57 | 314 | 5.2 | 10.4 | 0.00 | 0.18 | 0.03 | 71 | 1012.0 |
| 20260506084250 | 57 | 309 | 3.5 | 10.4 | 0.00 | 0.18 | 0.03 | 71 | 1012.0 |
| 20260506084208 | 57 | 284 | 4.3 | 11.3 | 0.00 | 0.18 | 0.03 | 72 | 1012.1 |
| 20260506083926 | 57 | 309 | 7.8 | 11.3 | 0.00 | 0.18 | 0.03 | 70 | 1012.0 |
| 20260506083824 | 58 | 298 | 5.2 | 11.3 | 0.00 | 0.18 | 0.03 | 71 | 1012.1 |
| 20260506083727 | 57 | 305 | 3.5 | 11.3 | 0.00 | 0.18 | 0.03 | 72 | 1012.1 |
| 20260506083640 | 57 | 335 | 3.5 | 11.3 | 0.00 | 0.18 | 0.03 | 70 | 1012.1 |
| 20260506083600 | 57 | 316 | 3.5 | 11.3 | 0.00 | 0.18 | 0.03 | 69 | 1012.1 |
| 20260506083514 | 58 | 302 | 5.2 | 11.3 | 0.00 | 0.18 | 0.03 | 71 | 1012.1 |
| 20260506083250 | 57 | 291 | 2.6 | 8.7 | 0.00 | 0.18 | 0.03 | 73 | 1012.1 |
| 20260506083205 | 57 | 296 | 2.6 | 8.7 | 0.00 | 0.18 | 0.03 | 74 | 1012.0 |
| 20260506083122 | 57 | 293 | 3.5 | 8.7 | 0.00 | 0.18 | 0.03 | 74 | 1012.0 |
| 20260506082853 | 57 | 208 | 3.5 | 8.7 | 0.00 | 0.18 | 0.03 | 73 | 1012.0 |
| 20260506082641 | 50 | 225 | 2.6 | 7.8 | 0.00 | 0.18 | 0.03 | 93 | 1011.8 |
| 20260506082610 | 57 | 108 | 5.2 | 11.3 | 0.00 | 0.18 | 0.03 | 72 | 1012.1 |
| 20260506082511 | 57 | 281 | 4.3 | 11.3 | 0.00 | 0.18 | 0.03 | 71 | 1012.1 |
| 20260506082404 | 57 | 267 | 3.5 | 12.2 | 0.00 | 0.18 | 0.03 | 73 | 1012.1 |
| 20260506082305 | 57 | 262 | 4.3 | 13.0 | 0.00 | 0.18 | 0.03 | 75 | 1012.1 |
| 20260506082202 | 57 | 299 | 5.2 | 13.0 | 0.00 | 0.18 | 0.03 | 74 | 1012.0 |
| 20260506082101 | 57 | 336 | 4.3 | 13.0 | 0.00 | 0.18 | 0.03 | 73 | 1012.1 |
| 20260506082042 | 50 | 213 | 1.7 | 6.1 | 0.00 | 0.18 | 0.03 | 93 | 1011.7 |
| 20260506082002 | 57 | 309 | 4.3 | 13.0 | 0.00 | 0.18 | 0.03 | 74 | 1012.1 |
| 20260506081918 | 56 | 304 | 5.2 | 13.0 | 0.00 | 0.18 | 0.03 | 73 | 1012.1 |
| 20260506081837 | 56 | 296 | 5.2 | 13.0 | 0.00 | 0.18 | 0.03 | 74 | 1012.0 |
| 20260506081557 | 56 | 316 | 7.0 | 13.0 | 0.00 | 0.18 | 0.03 | 74 | 1012.0 |
| 20260506081449 | 56 | 294 | 5.2 | 13.0 | 0.00 | 0.18 | 0.03 | 73 | 1012.0 |
| 20260506081436 | 50 | 225 | 2.6 | 7.0 | 0.00 | 0.18 | 0.03 | 93 | 1011.7 |
| 20260506081349 | 56 | 305 | 7.0 | 13.0 | 0.00 | 0.18 | 0.03 | 73 | 1012.0 |
| 20260506081310 | 56 | 305 | 7.8 | 13.0 | 0.00 | 0.18 | 0.03 | 73 | 1012.0 |
| 20260506081229 | 56 | 310 | 6.1 | 13.0 | 0.00 | 0.18 | 0.03 | 74 | 1012.0 |
| 20260506081132 | 56 | 292 | 3.5 | 13.0 | 0.00 | 0.18 | 0.03 | 76 | 1012.0 |
| 20260506080906 | 55 | 273 | 5.2 | 11.3 | 0.00 | 0.18 | 0.03 | 74 | 1012.0 |
| 20260506080825 | 55 | 281 | 5.2 | 11.3 | 0.00 | 0.18 | 0.03 | 75 | 1012.1 |
| 20260506080543 | 55 | 296 | 5.2 | 11.3 | 0.00 | 0.18 | 0.03 | 73 | 1012.0 |
| 20260506080501 | 55 | 301 | 4.3 | 11.3 | 0.00 | 0.18 | 0.03 | 73 | 1012.1 |
| 20260506080415 | 55 | 304 | 5.2 | 11.3 | 0.00 | 0.18 | 0.03 | 73 | 1012.0 |
| 20260506080220 | 50 | 277 | 2.6 | 7.0 | 0.00 | 0.18 | 0.03 | 94 | 1011.6 |
| 20260506080139 | 56 | 281 | 6.1 | 11.3 | 0.00 | 0.18 | 0.03 | 74 | 1012.0 |
| 20260506073522 | 54 | 252 | 3.5 | 10.4 | 0.00 | 0.18 | 0.03 | 80 | 1012.0 |
| 20260506073054 | 54 | 312 | 3.5 | 7.8 | 0.00 | 0.18 | 0.03 | 83 | 1012.0 |
| 20260506072953 | 53 | 301 | 2.6 | 7.8 | 0.00 | 0.18 | 0.03 | 84 | 1012.0 |
| 20260506072902 | 53 | 319 | 3.5 | 7.8 | 0.00 | 0.18 | 0.03 | 85 | 1012.0 |
| 20260506072820 | 53 | 289 | 3.5 | 7.8 | 0.00 | 0.18 | 0.03 | 85 | 1011.9 |
| 20260506072724 | 52 | 291 | 2.6 | 7.8 | 0.00 | 0.18 | 0.03 | 86 | 1012.0 |
| 20260506072630 | 52 | 284 | 1.7 | 7.0 | 0.00 | 0.18 | 0.03 | 87 | 1011.9 |
| 20260506072547 | 52 | 315 | 1.7 | 7.0 | 0.00 | 0.18 | 0.03 | 87 | 1012.0 |
| 20260506072325 | 52 | 238 | 3.5 | 7.0 | 0.00 | 0.18 | 0.03 | 87 | 1012.0 |
| 20260506072059 | 49 | 275 | 1.7 | 3.5 | 0.00 | 0.18 | 0.03 | 93 | 1011.6 |
| 20260506072038 | 52 | 211 | 3.5 | 6.1 | 0.00 | 0.18 | 0.03 | 87 | 1012.0 |
| 20260506071939 | 52 | 296 | 2.6 | 6.1 | 0.00 | 0.18 | 0.03 | 87 | 1012.0 |
| 20260506071839 | 52 | 282 | 1.7 | 6.1 | 0.00 | 0.18 | 0.03 | 87 | 1012.0 |
| 20260506071806 | 49 | 238 | 1.7 | 5.2 | 0.00 | 0.18 | 0.03 | 93 | 1011.6 |
| 20260506071736 | 52 | 257 | 1.7 | 6.1 | 0.00 | 0.18 | 0.03 | 87 | 1012.0 |
| 20260506071635 | 52 | 259 | 2.6 | 6.1 | 0.00 | 0.18 | 0.03 | 88 | 1012.0 |
| 20260506071534 | 52 | 279 | 2.6 | 6.1 | 0.00 | 0.18 | 0.03 | 88 | 1012.0 |
| 20260506071434 | 52 | 279 | 1.7 | 6.1 | 0.00 | 0.18 | 0.03 | 88 | 1012.0 |
| 20260506071354 | 52 | 277 | 1.7 | 6.1 | 0.00 | 0.18 | 0.03 | 88 | 1012.0 |
| 20260506071259 | 52 | 238 | 1.7 | 6.1 | 0.00 | 0.18 | 0.03 | 88 | 1012.0 |
| 20260506071217 | 52 | 51 | 1.7 | 6.1 | 0.00 | 0.18 | 0.03 | 88 | 1012.0 |
| 20260506070951 | 52 | 265 | 2.6 | 6.1 | 0.00 | 0.18 | 0.03 | 88 | 1012.0 |
| 20260506070907 | 52 | 221 | 2.6 | 6.1 | 0.00 | 0.18 | 0.03 | 88 | 1012.0 |
| 20260506070825 | 51 | 301 | 1.7 | 6.1 | 0.00 | 0.18 | 0.03 | 88 | 1012.0 |
| 20260506070622 | 51 | 309 | 1.7 | 6.1 | 0.00 | 0.18 | 0.03 | 88 | 1012.0 |
| 20260506070520 | 51 | 300 | 1.7 | 6.1 | 0.00 | 0.18 | 0.03 | 89 | 1012.0 |
| 20260506070456 | 49 | 265 | 1.7 | 2.6 | 0.00 | 0.18 | 0.03 | 93 | 1011.5 |
| 20260506070418 | 51 | 273 | 1.7 | 6.1 | 0.00 | 0.18 | 0.03 | 89 | 1012.0 |
| 20260506070319 | 51 | 225 | 1.7 | 6.1 | 0.00 | 0.18 | 0.03 | 89 | 1012.0 |
| 20260506070216 | 51 | 282 | 2.6 | 6.1 | 0.00 | 0.18 | 0.03 | 89 | 1012.0 |
| 20260506070123 | 51 | 265 | 3.5 | 7.8 | 0.00 | 0.18 | 0.03 | 89 | 1012.0 |
| 20260506062435 | 51 | 275 | 1.7 | 5.2 | 0.00 | 0.18 | 0.03 | 92 | 1011.8 |
| 20260506062420 | 49 | 215 | 0.9 | 3.5 | 0.00 | 0.18 | 0.03 | 93 | 1011.2 |
| 20260506062333 | 51 | 259 | 1.7 | 7.0 | 0.00 | 0.18 | 0.03 | 92 | 1011.8 |
| 20260506062259 | 49 | 265 | 0.9 | 3.5 | 0.00 | 0.18 | 0.03 | 93 | 1011.2 |
| 20260506062238 | 51 | 265 | 1.7 | 7.0 | 0.00 | 0.18 | 0.03 | 92 | 1011.8 |
| 20260506062157 | 51 | 291 | 1.7 | 7.0 | 0.00 | 0.18 | 0.03 | 92 | 1011.8 |
| 20260506062112 | 50 | 282 | 2.6 | 7.0 | 0.00 | 0.18 | 0.03 | 92 | 1011.8 |
| 20260506061828 | 51 | 286 | 1.7 | 7.0 | 0.00 | 0.18 | 0.03 | 93 | 1011.8 |
| 20260506061728 | 50 | 195 | 2.6 | 7.0 | 0.00 | 0.18 | 0.03 | 93 | 1011.8 |
| 20260506061716 | 49 | 249 | 0.9 | 3.5 | 0.00 | 0.18 | 0.03 | 93 | 1011.2 |
| 20260506061625 | 50 | 208 | 2.6 | 7.0 | 0.00 | 0.18 | 0.03 | 93 | 1011.8 |
| 20260506061614 | 49 | 265 | 0.9 | 1.7 | 0.00 | 0.18 | 0.03 | 93 | 1011.2 |
| 20260506061524 | 50 | 221 | 2.6 | 7.8 | 0.00 | 0.18 | 0.03 | 93 | 1011.8 |
| 20260506061424 | 50 | 249 | 2.6 | 7.8 | 0.00 | 0.18 | 0.03 | 93 | 1011.8 |
| 20260506061342 | 50 | 287 | 3.5 | 7.8 | 0.00 | 0.18 | 0.03 | 93 | 1011.8 |
| 20260506061302 | 50 | 292 | 2.6 | 7.8 | 0.00 | 0.18 | 0.03 | 93 | 1011.7 |
| 20260506061022 | 50 | 41 | 2.6 | 7.8 | 0.00 | 0.18 | 0.03 | 93 | 1011.8 |
| 20260506060925 | 50 | 217 | 1.7 | 7.8 | 0.00 | 0.18 | 0.03 | 93 | 1011.8 |
| 20260506060843 | 50 | 238 | 2.6 | 7.8 | 0.00 | 0.18 | 0.03 | 93 | 1011.7 |
| 20260506060749 | 50 | 286 | 3.5 | 7.8 | 0.00 | 0.18 | 0.03 | 93 | 1011.8 |
| 20260506060652 | 50 | 215 | 2.6 | 7.8 | 0.00 | 0.18 | 0.03 | 93 | 1011.8 |
| 20260506060609 | 50 | 254 | 2.6 | 7.8 | 0.00 | 0.18 | 0.03 | 93 | 1011.8 |
| 20260506060410 | 50 | 265 | 2.6 | 7.8 | 0.00 | 0.18 | 0.03 | 93 | 1011.8 |
| 20260506060329 | 50 | 294 | 2.6 | 7.8 | 0.00 | 0.18 | 0.03 | 93 | 1011.8 |
| 20260506060234 | 50 | 215 | 1.7 | 6.1 | 0.00 | 0.18 | 0.03 | 93 | 1011.8 |
| 20260506060151 | 50 | 265 | 1.7 | 6.1 | 0.00 | 0.18 | 0.03 | 94 | 1011.8 |
| 20260506051310 | 49 | 250 | 1.7 | 2.6 | 0.00 | 0.18 | 0.03 | 93 | 1011.5 |
| 20260506051251 | 49 | 221 | 0.9 | 1.7 | 0.00 | 0.18 | 0.03 | 93 | 1011.0 |
| 20260506051208 | 49 | 238 | 1.7 | 2.6 | 0.00 | 0.18 | 0.03 | 93 | 1011.5 |
| 20260506051108 | 49 | 238 | 1.7 | 2.6 | 0.00 | 0.18 | 0.03 | 93 | 1011.5 |
| 20260506051026 | 49 | 153 | 0.0 | 1.7 | 0.00 | 0.18 | 0.03 | 93 | 1010.9 |
| 20260506051007 | 49 | 321 | 0.9 | 2.6 | 0.00 | 0.18 | 0.03 | 93 | 1011.5 |
| 20260506050906 | 49 | 282 | 0.9 | 2.6 | 0.00 | 0.18 | 0.03 | 93 | 1011.5 |
| 20260506050804 | 49 | 282 | 0.9 | 2.6 | 0.00 | 0.18 | 0.03 | 93 | 1011.5 |
| 20260506050723 | 49 | 309 | 0.9 | 2.6 | 0.00 | 0.18 | 0.03 | 93 | 1011.5 |
| 20260506050641 | 49 | 265 | 0.9 | 2.6 | 0.00 | 0.18 | 0.03 | 93 | 1011.5 |
| 20260506050552 | 49 | 250 | 0.9 | 2.6 | 0.00 | 0.18 | 0.03 | 93 | 1011.3 |
| 20260506050511 | 49 | 279 | 1.7 | 2.6 | 0.00 | 0.18 | 0.03 | 93 | 1011.3 |
| 20260506050249 | 49 | 265 | 0.9 | 2.6 | 0.00 | 0.18 | 0.03 | 93 | 1011.3 |
| 20260506050208 | 49 | 265 | 0.9 | 2.6 | 0.00 | 0.18 | 0.03 | 93 | 1011.3 |
| 20260506050127 | 49 | 229 | 0.0 | 1.7 | 0.00 | 0.18 | 0.03 | 93 | 1011.3 |
| 20260506045046 | 49 | 250 | 0.9 | 3.5 | 0.00 | 0.18 | 0.03 | 93 | 1011.2 |
| 20260506044949 | 49 | 238 | 0.9 | 3.5 | 0.00 | 0.18 | 0.03 | 93 | 1011.2 |
| 20260506044713 | 49 | 254 | 0.9 | 3.5 | 0.00 | 0.18 | 0.03 | 93 | 1011.2 |
| 20260506044630 | 49 | 250 | 0.9 | 3.5 | 0.00 | 0.18 | 0.03 | 93 | 1011.2 |
| 20260506044404 | 49 | 275 | 0.9 | 3.5 | 0.00 | 0.18 | 0.03 | 93 | 1011.2 |
| 20260506044122 | 49 | 279 | 0.9 | 1.7 | 0.00 | 0.18 | 0.03 | 93 | 1011.2 |
| 20260506044020 | 49 | 221 | 0.9 | 1.7 | 0.00 | 0.18 | 0.03 | 93 | 1011.2 |
| 20260506043923 | 49 | 221 | 0.0 | 1.7 | 0.00 | 0.18 | 0.03 | 93 | 1011.1 |
| 20260506043833 | 49 | 265 | 0.0 | 1.7 | 0.00 | 0.18 | 0.03 | 93 | 1011.1 |
| 20260506043755 | 49 | 282 | 0.9 | 1.7 | 0.00 | 0.18 | 0.03 | 93 | 1011.2 |
| 20260506043514 | 49 | 309 | 0.0 | 0.9 | 0.00 | 0.18 | 0.03 | 93 | 1011.1 |
| 20260506043413 | 49 | 334 | 0.0 | 0.9 | 0.00 | 0.18 | 0.03 | 93 | 1011.2 |
| 20260506043331 | 49 | 215 | 0.0 | 1.7 | 0.00 | 0.18 | 0.03 | 93 | 1011.1 |
| 20260506043315 | 49 | 309 | 0.0 | 0.9 | 0.00 | 0.18 | 0.03 | 93 | 1011.2 |
| 20260506043213 | 49 | 153 | 0.0 | 0.9 | 0.00 | 0.18 | 0.03 | 93 | 1011.2 |
| 20260506043112 | 49 | 153 | 0.0 | 0.9 | 0.00 | 0.18 | 0.03 | 93 | 1011.2 |
| 20260506043012 | 49 | 153 | 0.0 | 0.9 | 0.00 | 0.18 | 0.03 | 93 | 1011.1 |
| 20260506042903 | 49 | 153 | 0.0 | 0.9 | 0.00 | 0.18 | 0.03 | 93 | 1011.1 |
| 20260506042846 | 49 | 190 | 0.9 | 1.7 | 0.00 | 0.18 | 0.03 | 93 | 1011.2 |
| 20260506042756 | 49 | 153 | 0.0 | 0.9 | 0.00 | 0.18 | 0.03 | 93 | 1011.1 |
| 20260506042657 | 49 | 153 | 0.0 | 0.9 | 0.00 | 0.18 | 0.03 | 93 | 1011.1 |
| 20260506042556 | 49 | 153 | 0.0 | 0.9 | 0.00 | 0.18 | 0.03 | 93 | 1011.1 |
| 20260506042453 | 49 | 153 | 0.0 | 1.7 | 0.00 | 0.18 | 0.03 | 93 | 1011.1 |
| 20260506042411 | 49 | 153 | 0.0 | 1.7 | 0.00 | 0.18 | 0.03 | 93 | 1011.0 |
| 20260506042334 | 49 | 137 | 0.0 | 1.7 | 0.00 | 0.18 | 0.03 | 93 | 1011.0 |
| 20260506042254 | 49 | 178 | 0.0 | 1.7 | 0.00 | 0.18 | 0.03 | 93 | 1011.0 |
| 20260506042030 | 49 | 146 | 0.9 | 1.7 | 0.00 | 0.18 | 0.03 | 93 | 1011.0 |
| 20260506041945 | 49 | 165 | 0.0 | 1.7 | 0.00 | 0.18 | 0.03 | 93 | 1010.9 |
| 20260506041905 | 49 | 161 | 0.0 | 1.7 | 0.00 | 0.18 | 0.03 | 93 | 1011.0 |
| 20260506041829 | 49 | 178 | 0.9 | 1.7 | 0.00 | 0.18 | 0.03 | 93 | 1011.0 |
| 20260506041423 | 49 | 161 | 0.9 | 1.7 | 0.00 | 0.18 | 0.03 | 93 | 1011.0 |
| 20260506041226 | 49 | 146 | 0.0 | 1.7 | 0.00 | 0.18 | 0.03 | 93 | 1011.1 |
| 20260506041142 | 49 | 196 | 0.9 | 1.7 | 0.00 | 0.18 | 0.03 | 93 | 1011.0 |
| 20260506041127 | 49 | 93 | 0.9 | 1.7 | 0.00 | 0.18 | 0.03 | 93 | 1011.2 |
| 20260506041040 | 49 | 178 | 0.9 | 1.7 | 0.00 | 0.18 | 0.03 | 93 | 1011.0 |
| 20260506040944 | 49 | 165 | 0.0 | 1.7 | 0.00 | 0.18 | 0.03 | 93 | 1010.9 |
| 20260506040856 | 49 | 178 | 0.0 | 1.7 | 0.00 | 0.18 | 0.03 | 93 | 1011.0 |
| 20260506040820 | 49 | 178 | 0.0 | 1.7 | 0.00 | 0.18 | 0.03 | 93 | 1011.0 |
| 20260506040603 | 49 | 178 | 0.0 | 1.7 | 0.00 | 0.18 | 0.03 | 93 | 1010.9 |
| 20260506040419 | 49 | 265 | 0.0 | 1.7 | 0.00 | 0.18 | 0.03 | 93 | 1011.0 |
| 20260506040320 | 49 | 282 | 0.0 | 1.7 | 0.00 | 0.18 | 0.03 | 93 | 1011.0 |
| 20260506040307 | 49 | 51 | 0.0 | 0.9 | 0.00 | 0.18 | 0.03 | 93 | 1011.2 |
| 20260506040221 | 49 | 221 | 0.9 | 1.7 | 0.00 | 0.18 | 0.03 | 93 | 1010.9 |
| 20260506040112 | 49 | 279 | 0.0 | 1.7 | 0.00 | 0.18 | 0.03 | 93 | 1011.0 |
| 20260506040016 | 49 | 291 | 0.0 | 1.7 | 0.00 | 0.18 | 0.03 | 93 | 1011.0 |
| 20260506035938 | 49 | 309 | 0.0 | 1.7 | 0.00 | 0.18 | 0.03 | 93 | 1010.9 |
| 20260506035902 | 49 | 51 | 0.0 | 1.7 | 0.00 | 0.18 | 0.03 | 93 | 1011.0 |
| 20260506035709 | 49 | 51 | 0.0 | 2.6 | 0.00 | 0.18 | 0.03 | 93 | 1010.9 |
| 20260506035649 | 49 | 137 | 0.9 | 1.7 | 0.00 | 0.18 | 0.03 | 93 | 1011.2 |
| 20260506035608 | 49 | 51 | 0.0 | 2.6 | 0.00 | 0.18 | 0.03 | 93 | 1011.0 |
| 20260506035527 | 49 | 168 | 0.9 | 2.6 | 0.00 | 0.18 | 0.03 | 93 | 1011.2 |
| 20260506035508 | 49 | 93 | 0.0 | 2.6 | 0.00 | 0.18 | 0.03 | 93 | 1011.0 |
| 20260506035359 | 49 | 93 | 0.0 | 2.6 | 0.00 | 0.18 | 0.03 | 93 | 1011.0 |
| 20260506035259 | 49 | 196 | 0.0 | 2.6 | 0.00 | 0.18 | 0.03 | 93 | 1011.1 |
| 20260506035158 | 49 | 196 | 0.0 | 2.6 | 0.00 | 0.18 | 0.03 | 93 | 1010.9 |
| 20260506035058 | 49 | 178 | 0.0 | 2.6 | 0.00 | 0.18 | 0.03 | 93 | 1011.0 |
| 20260506035036 | 49 | 178 | 0.0 | 1.7 | 0.00 | 0.18 | 0.03 | 93 | 1011.2 |
| 20260506035000 | 49 | 137 | 0.9 | 2.6 | 0.00 | 0.18 | 0.03 | 93 | 1011.0 |
| 20260506034912 | 49 | 338 | 1.7 | 2.6 | 0.00 | 0.18 | 0.03 | 93 | 1011.0 |
| 20260506034835 | 49 | 304 | 0.9 | 2.6 | 0.00 | 0.18 | 0.03 | 93 | 1011.0 |
| 20260506034642 | 49 | 286 | 0.9 | 1.7 | 0.00 | 0.18 | 0.03 | 93 | 1011.1 |
| 20260506034549 | 49 | 254 | 0.9 | 1.7 | 0.00 | 0.18 | 0.03 | 93 | 1011.1 |
| 20260506034502 | 49 | 243 | 0.9 | 1.7 | 0.00 | 0.18 | 0.03 | 93 | 1011.1 |
| 20260506034418 | 49 | 153 | 0.9 | 1.7 | 0.00 | 0.18 | 0.03 | 93 | 1011.0 |
| 20260506034128 | 49 | 111 | 0.0 | 1.7 | 0.00 | 0.18 | 0.03 | 93 | 1011.1 |
| 20260506034028 | 49 | 137 | 0.0 | 1.7 | 0.00 | 0.18 | 0.03 | 93 | 1011.1 |
| 20260506033922 | 49 | 153 | 0.9 | 1.7 | 0.00 | 0.18 | 0.03 | 93 | 1011.0 |
| 20260506033820 | 49 | 137 | 0.9 | 1.7 | 0.00 | 0.18 | 0.03 | 93 | 1011.1 |
| 20260506033720 | 49 | 178 | 0.9 | 1.7 | 0.00 | 0.18 | 0.03 | 93 | 1011.1 |
| 20260506033619 | 49 | 178 | 0.9 | 1.7 | 0.00 | 0.18 | 0.03 | 93 | 1011.1 |
| 20260506033517 | 49 | 161 | 0.9 | 1.7 | 0.00 | 0.18 | 0.03 | 93 | 1011.1 |
| 20260506033417 | 49 | 161 | 0.9 | 1.7 | 0.00 | 0.18 | 0.03 | 93 | 1011.1 |
| 20260506033359 | 49 | 325 | 0.0 | 0.9 | 0.00 | 0.18 | 0.03 | 93 | 1011.2 |
| 20260506033333 | 49 | 325 | 0.0 | 0.9 | 0.00 | 0.18 | 0.03 | 93 | 1011.2 |
| 20260506033316 | 49 | 193 | 0.9 | 1.7 | 0.00 | 0.18 | 0.03 | 93 | 1011.1 |
| 20260506033214 | 49 | 205 | 0.9 | 1.7 | 0.00 | 0.18 | 0.03 | 93 | 1011.1 |
| 20260506033112 | 49 | 178 | 0.9 | 1.7 | 0.00 | 0.18 | 0.03 | 93 | 1011.1 |
| 20260506033057 | 49 | 334 | 0.0 | 0.9 | 0.00 | 0.18 | 0.03 | 93 | 1011.2 |
| 20260506033017 | 49 | 146 | 0.9 | 1.7 | 0.00 | 0.18 | 0.03 | 93 | 1011.1 |
| 20260506032933 | 49 | 119 | 0.9 | 1.7 | 0.00 | 0.18 | 0.03 | 93 | 1011.1 |
| 20260506032849 | 49 | 161 | 0.9 | 1.7 | 0.00 | 0.18 | 0.03 | 93 | 1011.1 |
| 20260506032628 | 49 | 205 | 0.9 | 1.7 | 0.00 | 0.18 | 0.03 | 93 | 1011.2 |
| 20260506032547 | 49 | 178 | 0.9 | 1.7 | 0.00 | 0.18 | 0.03 | 93 | 1011.2 |
| 20260506032500 | 49 | 196 | 0.9 | 1.7 | 0.00 | 0.18 | 0.03 | 93 | 1011.2 |
| 20260506032316 | 49 | 282 | 0.0 | 1.7 | 0.00 | 0.18 | 0.03 | 93 | 1011.2 |
| 20260506032305 | 49 | 205 | 0.0 | 1.7 | 0.00 | 0.18 | 0.03 | 93 | 1011.2 |
| 20260506032157 | 49 | 265 | 0.0 | 0.9 | 0.00 | 0.18 | 0.03 | 93 | 1011.2 |
| 20260506032103 | 49 | 153 | 0.0 | 0.9 | 0.00 | 0.18 | 0.03 | 93 | 1011.2 |
| 20260506031957 | 49 | 178 | 0.0 | 0.9 | 0.00 | 0.18 | 0.03 | 93 | 1011.2 |
| 20260506031856 | 49 | 137 | 0.0 | 0.9 | 0.00 | 0.18 | 0.03 | 93 | 1011.2 |
| 20260506031816 | 49 | 9 | 0.0 | 1.7 | 0.00 | 0.18 | 0.03 | 93 | 1011.3 |
| 20260506031755 | 49 | 137 | 0.0 | 0.9 | 0.00 | 0.18 | 0.03 | 93 | 1011.2 |
| 20260506031655 | 49 | 137 | 0.9 | 0.9 | 0.00 | 0.18 | 0.03 | 93 | 1011.2 |
| 20260506031613 | 49 | 178 | 0.0 | 0.9 | 0.00 | 0.18 | 0.03 | 93 | 1011.1 |
| 20260506031529 | 49 | 178 | 0.0 | 0.9 | 0.00 | 0.18 | 0.03 | 93 | 1011.2 |
| 20260506031444 | 49 | 178 | 0.9 | 1.7 | 0.00 | 0.18 | 0.03 | 93 | 1011.2 |
| 20260506031227 | 49 | 51 | 0.0 | 1.7 | 0.00 | 0.18 | 0.03 | 93 | 1011.1 |
| 20260506031007 | 49 | 146 | 0.0 | 1.7 | 0.00 | 0.18 | 0.03 | 93 | 1011.2 |
| 20260506030920 | 49 | 144 | 0.0 | 1.7 | 0.00 | 0.18 | 0.03 | 93 | 1011.2 |
| 20260506030841 | 49 | 111 | 0.9 | 1.7 | 0.00 | 0.18 | 0.03 | 93 | 1011.2 |
| 20260506030602 | 49 | 146 | 0.9 | 1.7 | 0.00 | 0.18 | 0.03 | 93 | 1011.2 |
| 20260506030516 | 49 | 137 | 0.0 | 0.9 | 0.00 | 0.18 | 0.03 | 93 | 1011.2 |
| 20260506030313 | 49 | 93 | 0.9 | 1.7 | 0.00 | 0.18 | 0.03 | 93 | 1011.2 |
| 20260506030237 | 49 | 93 | 0.0 | 0.9 | 0.00 | 0.18 | 0.03 | 93 | 1011.2 |
| 20260506030156 | 49 | 93 | 0.0 | 1.7 | 0.00 | 0.18 | 0.03 | 93 | 1011.2 |
| 20260506030122 | 49 | 93 | 0.0 | 1.7 | 0.00 | 0.18 | 0.03 | 93 | 1011.1 |
| 20260506025931 | 49 | 93 | 0.0 | 1.7 | 0.00 | 0.18 | 0.03 | 93 | 1011.2 |
| 20260506025853 | 49 | 93 | 0.0 | 1.7 | 0.00 | 0.18 | 0.03 | 93 | 1011.1 |
| 20260506025811 | 49 | 93 | 0.0 | 1.7 | 0.00 | 0.18 | 0.03 | 93 | 1011.2 |
| 20260506025546 | 49 | 137 | 0.0 | 1.7 | 0.00 | 0.18 | 0.03 | 93 | 1011.1 |
| 20260506025502 | 49 | 108 | 0.0 | 1.7 | 0.00 | 0.18 | 0.03 | 93 | 1011.2 |
| 20260506025225 | 49 | 178 | 0.9 | 1.7 | 0.00 | 0.18 | 0.03 | 93 | 1011.1 |
| 20260506025138 | 49 | 165 | 0.9 | 2.6 | 0.00 | 0.18 | 0.03 | 93 | 1011.2 |
| 20260506025101 | 49 | 137 | 0.9 | 2.6 | 0.00 | 0.18 | 0.03 | 93 | 1011.2 |
| 20260506024820 | 49 | 205 | 0.0 | 2.6 | 0.00 | 0.18 | 0.03 | 93 | 1011.2 |
| 20260506024718 | 49 | 165 | 0.0 | 2.6 | 0.00 | 0.18 | 0.03 | 93 | 1011.2 |
| 20260506024634 | 49 | 205 | 0.0 | 2.6 | 0.00 | 0.18 | 0.03 | 93 | 1011.2 |
| 20260506024552 | 49 | 282 | 0.0 | 2.6 | 0.00 | 0.18 | 0.03 | 93 | 1011.2 |
| 20260506024514 | 49 | 282 | 0.9 | 2.6 | 0.00 | 0.18 | 0.03 | 93 | 1011.2 |
| 20260506024305 | 49 | 282 | 0.9 | 2.6 | 0.00 | 0.18 | 0.03 | 93 | 1011.2 |
| 20260506024205 | 49 | 309 | 1.7 | 1.7 | 0.00 | 0.18 | 0.03 | 93 | 1011.2 |
| 20260506024154 | 49 | 265 | 0.9 | 1.7 | 0.00 | 0.18 | 0.03 | 93 | 1011.2 |
| 20260506024130 | 49 | 282 | 0.0 | 1.7 | 0.00 | 0.18 | 0.03 | 93 | 1011.2 |
| 20260506024103 | 49 | 314 | 0.9 | 1.7 | 0.00 | 0.18 | 0.03 | 93 | 1011.2 |
| 20260506024000 | 49 | 309 | 0.9 | 1.7 | 0.00 | 0.18 | 0.03 | 93 | 1011.2 |
| 20260506023859 | 49 | 319 | 0.9 | 1.7 | 0.00 | 0.18 | 0.03 | 93 | 1011.1 |
| 20260506023800 | 49 | 232 | 0.9 | 1.7 | 0.00 | 0.18 | 0.03 | 93 | 1011.1 |
| 20260506023717 | 49 | 238 | 0.9 | 1.7 | 0.00 | 0.18 | 0.03 | 93 | 1011.1 |
| 20260506023640 | 49 | 221 | 0.9 | 1.7 | 0.00 | 0.18 | 0.03 | 93 | 1011.1 |
| 20260506023557 | 49 | 146 | 0.0 | 1.7 | 0.00 | 0.18 | 0.03 | 93 | 1011.1 |
| 20260506023331 | 49 | 137 | 0.0 | 1.7 | 0.00 | 0.18 | 0.03 | 93 | 1011.1 |
| 20260506023132 | 50 | 67 | 0.9 | 2.6 | 0.00 | 0.18 | 0.03 | 93 | 1011.3 |
| 20260506023049 | 49 | 221 | 0.0 | 1.7 | 0.00 | 0.18 | 0.03 | 93 | 1011.1 |
| 20260506022950 | 49 | 93 | 0.9 | 1.7 | 0.00 | 0.18 | 0.03 | 93 | 1011.2 |
| 20260506022845 | 49 | 137 | 0.9 | 1.7 | 0.00 | 0.18 | 0.03 | 93 | 1011.2 |
| 20260506022745 | 49 | 105 | 0.9 | 1.7 | 0.00 | 0.18 | 0.03 | 93 | 1011.1 |
| 20260506022643 | 49 | 119 | 0.9 | 1.7 | 0.00 | 0.18 | 0.03 | 93 | 1011.2 |
| 20260506022536 | 49 | 108 | 0.9 | 1.7 | 0.00 | 0.18 | 0.03 | 93 | 1011.2 |
| 20260506022447 | 49 | 105 | 0.9 | 1.7 | 0.00 | 0.18 | 0.03 | 93 | 1011.2 |
| 20260506022407 | 49 | 137 | 0.9 | 1.7 | 0.00 | 0.18 | 0.03 | 93 | 1011.2 |
| 20260506022327 | 49 | 123 | 0.9 | 1.7 | 0.00 | 0.18 | 0.03 | 93 | 1011.2 |
| 20260506022130 | 49 | 93 | 0.9 | 1.7 | 0.00 | 0.18 | 0.03 | 93 | 1011.3 |
| 20260506022028 | 49 | 126 | 0.9 | 1.7 | 0.00 | 0.18 | 0.03 | 93 | 1011.2 |
| 20260506021929 | 49 | 119 | 0.9 | 1.7 | 0.00 | 0.18 | 0.03 | 93 | 1011.2 |
| 20260506021907 | 50 | 196 | 0.9 | 3.5 | 0.01 | 0.18 | 0.03 | 92 | 1011.7 |
| 20260506021829 | 49 | 111 | 0.9 | 1.7 | 0.00 | 0.18 | 0.03 | 93 | 1011.2 |
| 20260506021740 | 49 | 115 | 0.9 | 1.7 | 0.00 | 0.18 | 0.03 | 93 | 1011.1 |
| 20260506021620 | 49 | 108 | 0.9 | 1.7 | 0.00 | 0.18 | 0.03 | 93 | 1011.1 |
| 20260506021519 | 49 | 126 | 0.0 | 0.9 | 0.00 | 0.18 | 0.03 | 93 | 1011.1 |
| 20260506021436 | 50 | 178 | 0.9 | 1.7 | 0.01 | 0.18 | 0.03 | 92 | 1011.8 |
| 20260506021417 | 49 | 205 | 0.0 | 0.9 | 0.00 | 0.18 | 0.03 | 93 | 1011.2 |
| 20260506021316 | 49 | 51 | 0.9 | 0.9 | 0.00 | 0.18 | 0.03 | 93 | 1011.2 |
| 20260506021216 | 49 | 93 | 0.0 | 0.9 | 0.00 | 0.18 | 0.03 | 93 | 1011.2 |
| 20260506021135 | 49 | 137 | 0.0 | 0.9 | 0.00 | 0.18 | 0.03 | 93 | 1011.1 |
| 20260506021053 | 49 | 9 | 0.0 | 0.9 | 0.00 | 0.18 | 0.03 | 93 | 1011.2 |
| 20260506021010 | 49 | 26 | 0.0 | 0.9 | 0.00 | 0.18 | 0.03 | 93 | 1011.1 |
| 20260506020807 | 49 | 51 | 0.0 | 0.9 | 0.00 | 0.18 | 0.03 | 93 | 1011.2 |
| 20260506020730 | 49 | 309 | 0.0 | 0.9 | 0.00 | 0.18 | 0.03 | 93 | 1011.2 |
| 20260506020655 | 49 | 309 | 0.0 | 0.9 | 0.00 | 0.18 | 0.03 | 93 | 1011.2 |
| 20260506020614 | 49 | 309 | 0.0 | 0.9 | 0.00 | 0.18 | 0.03 | 93 | 1011.1 |
| 20260506020213 | 49 | 309 | 0.0 | 0.9 | 0.00 | 0.18 | 0.03 | 93 | 1011.1 |
| 20260506020137 | 49 | 334 | 0.0 | 0.9 | 0.00 | 0.18 | 0.03 | 93 | 1011.1 |
| 20260506020104 | 49 | 334 | 0.0 | 0.9 | 0.00 | 0.18 | 0.03 | 93 | 1011.1 |
| 20260506020001 | 49 | 9 | 0.0 | 0.9 | 0.00 | 0.18 | 0.03 | 93 | 1011.1 |
| 20260506015930 | 49 | 9 | 0.9 | 0.9 | 0.00 | 0.18 | 0.03 | 93 | 1011.2 |
| 20260506015850 | 49 | 9 | 0.0 | 0.9 | 0.00 | 0.18 | 0.03 | 93 | 1011.1 |
| 20260506015314 | 49 | 142 | 0.9 | 1.7 | 0.01 | 0.18 | 0.03 | 92 | 1011.8 |
| 20260506015242 | 49 | 146 | 0.0 | 1.7 | 0.00 | 0.18 | 0.03 | 93 | 1011.2 |
| 20260506015141 | 49 | 282 | 0.0 | 1.7 | 0.00 | 0.18 | 0.03 | 93 | 1011.2 |
| 20260506015039 | 49 | 51 | 0.0 | 1.7 | 0.00 | 0.18 | 0.03 | 93 | 1011.2 |
| 20260506014936 | 49 | 51 | 0.0 | 1.7 | 0.00 | 0.18 | 0.03 | 93 | 1011.2 |
| 20260506014838 | 49 | 153 | 0.0 | 1.7 | 0.00 | 0.18 | 0.03 | 93 | 1011.2 |
| 20260506014825 | 49 | 9 | 0.0 | 3.5 | 0.01 | 0.18 | 0.03 | 92 | 1011.9 |
| 20260506014752 | 49 | 119 | 0.9 | 3.5 | 0.01 | 0.18 | 0.03 | 92 | 1011.9 |
| 20260506014730 | 49 | 153 | 0.0 | 1.7 | 0.00 | 0.18 | 0.03 | 93 | 1011.2 |
| 20260506014627 | 49 | 126 | 0.9 | 1.7 | 0.00 | 0.18 | 0.03 | 93 | 1011.2 |
| 20260506014526 | 49 | 137 | 0.9 | 1.7 | 0.00 | 0.18 | 0.03 | 93 | 1011.2 |
| 20260506014424 | 49 | 137 | 0.9 | 1.7 | 0.00 | 0.18 | 0.03 | 93 | 1011.2 |
| 20260506014322 | 49 | 93 | 0.9 | 1.7 | 0.00 | 0.18 | 0.03 | 93 | 1011.2 |
| 20260506014307 | 49 | 187 | 0.9 | 2.6 | 0.00 | 0.17 | 0.02 | 92 | 1012.0 |
| 20260506014224 | 49 | 131 | 0.9 | 1.7 | 0.00 | 0.18 | 0.03 | 93 | 1011.2 |
| 20260506014136 | 49 | 93 | 0.9 | 1.7 | 0.00 | 0.18 | 0.03 | 92 | 1011.3 |
| 20260506014055 | 49 | 76 | 0.9 | 1.7 | 0.00 | 0.18 | 0.03 | 92 | 1011.2 |
| 20260506013817 | 49 | 34 | 0.0 | 1.7 | 0.00 | 0.18 | 0.03 | 92 | 1011.3 |
| 20260506013718 | 49 | 80 | 0.9 | 1.7 | 0.00 | 0.18 | 0.03 | 92 | 1011.2 |
| 20260506013656 | 49 | 51 | 0.9 | 1.7 | 0.01 | 0.17 | 0.02 | 91 | 1012.0 |
| 20260506013615 | 49 | 93 | 0.9 | 1.7 | 0.00 | 0.18 | 0.03 | 92 | 1011.2 |
| 20260506013514 | 49 | 111 | 0.9 | 1.7 | 0.00 | 0.18 | 0.03 | 93 | 1011.2 |
| 20260506013432 | 49 | 93 | 0.0 | 1.7 | 0.00 | 0.18 | 0.03 | 93 | 1011.2 |
| 20260506013350 | 49 | 93 | 0.0 | 1.7 | 0.00 | 0.18 | 0.03 | 93 | 1011.3 |
| 20260506013133 | 49 | 137 | 0.9 | 1.7 | 0.00 | 0.18 | 0.03 | 92 | 1011.3 |
| 20260506013052 | 49 | 119 | 0.9 | 1.7 | 0.00 | 0.18 | 0.03 | 92 | 1011.2 |
| 20260506012856 | 49 | 212 | 0.9 | 1.7 | 0.01 | 0.17 | 0.02 | 91 | 1012.1 |
| 20260506012805 | 49 | 126 | 0.9 | 1.7 | 0.00 | 0.18 | 0.03 | 92 | 1011.3 |
| 20260506012702 | 49 | 137 | 0.9 | 1.7 | 0.00 | 0.18 | 0.03 | 92 | 1011.3 |
| 20260506012601 | 49 | 93 | 0.9 | 1.7 | 0.00 | 0.18 | 0.03 | 92 | 1011.2 |
| 20260506012534 | 50 | 247 | 0.0 | 1.7 | 0.02 | 0.17 | 0.02 | 92 | 1012.0 |
| 20260506012502 | 49 | 80 | 0.9 | 1.7 | 0.00 | 0.18 | 0.03 | 92 | 1011.3 |
| 20260506012420 | 49 | 80 | 0.9 | 1.7 | 0.00 | 0.18 | 0.03 | 92 | 1011.2 |
| 20260506012339 | 49 | 76 | 0.9 | 1.7 | 0.00 | 0.18 | 0.03 | 92 | 1011.2 |
| 20260506012257 | 49 | 80 | 0.9 | 0.9 | 0.00 | 0.18 | 0.03 | 92 | 1011.2 |
| 20260506012055 | 49 | 76 | 0.9 | 0.9 | 0.00 | 0.18 | 0.03 | 92 | 1011.2 |
| 20260506011954 | 49 | 51 | 0.0 | 0.9 | 0.00 | 0.18 | 0.03 | 93 | 1011.2 |
| 20260506011907 | 49 | 9 | 0.0 | 1.7 | 0.00 | 0.18 | 0.03 | 93 | 1011.2 |
| 20260506011824 | 49 | 309 | 0.0 | 1.7 | 0.00 | 0.18 | 0.03 | 93 | 1011.3 |
| 20260506011543 | 49 | 282 | 0.0 | 1.7 | 0.00 | 0.18 | 0.03 | 93 | 1011.2 |
| 20260506011446 | 49 | 309 | 0.0 | 1.7 | 0.00 | 0.18 | 0.03 | 93 | 1011.2 |
| 20260506011401 | 49 | 265 | 0.0 | 1.7 | 0.00 | 0.18 | 0.03 | 93 | 1011.2 |
| 20260506011324 | 49 | 238 | 0.0 | 1.7 | 0.00 | 0.18 | 0.03 | 93 | 1011.2 |
| 20260506011251 | 49 | 221 | 0.0 | 1.7 | 0.00 | 0.18 | 0.03 | 93 | 1011.3 |
| 20260506010907 | 50 | 178 | 0.9 | 1.7 | 0.02 | 0.17 | 0.02 | 92 | 1012.1 |
| 20260506010826 | 49 | 298 | 0.0 | 1.7 | 0.00 | 0.18 | 0.03 | 93 | 1011.3 |
| 20260506010728 | 49 | 265 | 0.9 | 1.7 | 0.00 | 0.18 | 0.03 | 93 | 1011.3 |
| 20260506010618 | 49 | 291 | 0.9 | 1.7 | 0.00 | 0.18 | 0.03 | 93 | 1011.3 |
| 20260506010535 | 50 | 221 | 0.9 | 1.7 | 0.02 | 0.17 | 0.02 | 92 | 1012.1 |
| 20260506010516 | 50 | 309 | 0.9 | 1.7 | 0.00 | 0.18 | 0.03 | 93 | 1011.3 |
| 20260506010418 | 50 | 9 | 0.9 | 2.6 | 0.00 | 0.18 | 0.03 | 93 | 1011.3 |
| 20260506010329 | 50 | 9 | 0.9 | 2.6 | 0.00 | 0.18 | 0.03 | 93 | 1011.3 |
| 20260506010249 | 50 | 325 | 0.9 | 2.6 | 0.00 | 0.18 | 0.03 | 93 | 1011.3 |
| 20260506010018 | 50 | 103 | 0.9 | 2.6 | 0.00 | 0.18 | 0.03 | 93 | 1011.3 |
| 20260506010006 | 50 | 221 | 0.9 | 1.7 | 0.02 | 0.17 | 0.02 | 92 | 1012.1 |
| 20260506005913 | 50 | 111 | 0.9 | 2.6 | 0.00 | 0.18 | 0.03 | 93 | 1011.3 |
| 20260506005812 | 50 | 161 | 0.9 | 2.6 | 0.00 | 0.18 | 0.03 | 93 | 1011.5 |
| 20260506005713 | 50 | 221 | 0.9 | 2.6 | 0.00 | 0.18 | 0.03 | 93 | 1011.5 |
| 20260506005615 | 50 | 205 | 0.9 | 2.6 | 0.00 | 0.18 | 0.03 | 93 | 1011.5 |
| 20260506005602 | 50 | 178 | 0.9 | 2.6 | 0.02 | 0.17 | 0.02 | 92 | 1012.2 |
| 20260506005506 | 50 | 168 | 1.7 | 2.6 | 0.00 | 0.18 | 0.03 | 93 | 1011.5 |
| 20260506005412 | 50 | 190 | 0.9 | 2.6 | 0.00 | 0.18 | 0.03 | 93 | 1011.6 |
| 20260506005353 | 50 | 132 | 0.9 | 5.2 | 0.02 | 0.17 | 0.02 | 92 | 1012.1 |
| 20260506005308 | 50 | 198 | 0.9 | 2.6 | 0.00 | 0.18 | 0.03 | 93 | 1011.6 |
| 20260506005206 | 50 | 178 | 0.9 | 2.6 | 0.00 | 0.18 | 0.03 | 93 | 1011.6 |
| 20260506005109 | 50 | 196 | 0.9 | 2.6 | 0.00 | 0.18 | 0.03 | 93 | 1011.6 |
| 20260506005040 | 51 | 307 | 3.5 | 7.0 | 0.02 | 0.17 | 0.02 | 92 | 1012.3 |
| 20260506005006 | 50 | 200 | 1.7 | 2.6 | 0.00 | 0.18 | 0.03 | 93 | 1011.6 |
| 20260506004941 | 51 | 330 | 3.5 | 7.0 | 0.02 | 0.17 | 0.02 | 92 | 1012.3 |
| 20260506004906 | 50 | 209 | 0.9 | 2.6 | 0.00 | 0.18 | 0.03 | 93 | 1011.6 |
| 20260506004802 | 50 | 170 | 0.9 | 1.7 | 0.00 | 0.18 | 0.03 | 92 | 1011.5 |
| 20260506004707 | 50 | 168 | 0.9 | 1.7 | 0.01 | 0.18 | 0.03 | 93 | 1011.6 |
| 20260506004627 | 50 | 161 | 0.9 | 1.7 | 0.01 | 0.18 | 0.03 | 92 | 1011.6 |
| 20260506004545 | 50 | 168 | 0.9 | 1.7 | 0.01 | 0.18 | 0.03 | 92 | 1011.6 |
| 20260506004254 | 50 | 178 | 0.0 | 2.6 | 0.01 | 0.18 | 0.03 | 92 | 1011.6 |
| 20260506004215 | 50 | 137 | 0.9 | 2.6 | 0.01 | 0.18 | 0.03 | 92 | 1011.6 |
| 20260506004137 | 50 | 161 | 0.9 | 2.6 | 0.01 | 0.18 | 0.03 | 92 | 1011.7 |
| 20260506003950 | 50 | 137 | 0.0 | 3.5 | 0.01 | 0.18 | 0.03 | 92 | 1011.6 |
| 20260506003903 | 50 | 265 | 0.9 | 3.5 | 0.01 | 0.18 | 0.03 | 92 | 1011.6 |
| 20260506003823 | 50 | 238 | 0.9 | 3.5 | 0.01 | 0.18 | 0.03 | 92 | 1011.7 |
| 20260506003542 | 50 | 205 | 1.7 | 3.5 | 0.01 | 0.18 | 0.03 | 92 | 1011.7 |
| 20260506003529 | 51 | 306 | 1.7 | 5.2 | 0.00 | 0.15 | 0.00 | 92 | 1012.4 |
| 20260506003442 | 50 | 188 | 0.9 | 3.5 | 0.01 | 0.18 | 0.03 | 92 | 1011.8 |
| 20260506003340 | 50 | 158 | 1.7 | 3.5 | 0.01 | 0.18 | 0.03 | 92 | 1011.7 |
| 20260506003311 | 51 | 303 | 0.9 | 2.6 | 0.00 | 0.15 | 0.00 | 92 | 1012.5 |
| 20260506003240 | 50 | 178 | 1.7 | 3.5 | 0.01 | 0.18 | 0.03 | 92 | 1011.8 |
| 20260506003138 | 50 | 178 | 1.7 | 3.5 | 0.01 | 0.18 | 0.03 | 92 | 1011.8 |
| 20260506003036 | 50 | 288 | 1.7 | 3.5 | 0.01 | 0.18 | 0.03 | 92 | 1011.8 |
| 20260506002955 | 51 | 254 | 0.9 | 2.6 | 0.00 | 0.15 | 0.00 | 92 | 1012.5 |
| 20260506002935 | 50 | 188 | 0.9 | 1.7 | 0.01 | 0.18 | 0.03 | 92 | 1011.8 |
| 20260506002850 | 50 | 158 | 0.9 | 1.7 | 0.01 | 0.18 | 0.03 | 92 | 1011.8 |
| 20260506002808 | 50 | 190 | 0.9 | 1.7 | 0.01 | 0.18 | 0.03 | 92 | 1011.9 |
| 20260506002527 | 50 | 188 | 0.9 | 1.7 | 0.01 | 0.18 | 0.03 | 92 | 1011.8 |
| 20260506002426 | 50 | 205 | 0.9 | 1.7 | 0.01 | 0.18 | 0.03 | 92 | 1011.8 |
| 20260506002324 | 50 | 178 | 0.9 | 1.7 | 0.01 | 0.18 | 0.03 | 92 | 1011.8 |
| 20260506002243 | 50 | 146 | 0.9 | 1.7 | 0.01 | 0.18 | 0.03 | 92 | 1011.8 |
| 20260506002203 | 50 | 131 | 1.7 | 1.7 | 0.01 | 0.18 | 0.03 | 92 | 1011.8 |
| 20260506001947 | 51 | 247 | 0.9 | 2.6 | 0.00 | 0.15 | 0.00 | 92 | 1012.6 |
| 20260506001917 | 50 | 123 | 0.9 | 1.7 | 0.01 | 0.18 | 0.03 | 93 | 1011.8 |
| 20260506001816 | 50 | 161 | 0.9 | 1.7 | 0.01 | 0.18 | 0.03 | 93 | 1011.8 |
| 20260506001735 | 50 | 144 | 0.9 | 1.7 | 0.01 | 0.18 | 0.03 | 92 | 1011.8 |
| 20260506001659 | 49 | 137 | 0.9 | 1.7 | 0.01 | 0.18 | 0.03 | 92 | 1011.8 |
| 20260506001443 | 51 | 212 | 0.9 | 1.7 | 0.00 | 0.16 | 0.15 | 92 | 1012.7 |
| 20260506001411 | 49 | 129 | 0.9 | 1.7 | 0.01 | 0.18 | 0.03 | 92 | 1011.8 |
| 20260506001318 | 49 | 165 | 0.0 | 1.7 | 0.01 | 0.18 | 0.03 | 92 | 1011.9 |
| 20260506001241 | 51 | 275 | 0.9 | 1.7 | 0.00 | 0.16 | 0.15 | 92 | 1012.7 |
| 20260506001211 | 49 | 153 | 0.0 | 1.7 | 0.01 | 0.18 | 0.03 | 92 | 1011.8 |
| 20260506001153 | 51 | 238 | 0.0 | 1.7 | 0.00 | 0.16 | 0.15 | 92 | 1012.6 |
| 20260506001129 | 51 | 309 | 0.9 | 1.7 | 0.00 | 0.16 | 0.15 | 92 | 1012.6 |
| 20260506001111 | 49 | 111 | 0.0 | 1.7 | 0.01 | 0.18 | 0.03 | 92 | 1011.9 |
| 20260506001052 | 51 | 238 | 0.9 | 1.7 | 0.00 | 0.16 | 0.15 | 92 | 1012.6 |
| 20260506001009 | 49 | 67 | 0.0 | 1.7 | 0.01 | 0.18 | 0.03 | 92 | 1011.9 |
| 20260506000941 | 51 | 247 | 0.9 | 1.7 | 0.00 | 0.16 | 0.15 | 92 | 1012.7 |
| 20260506000914 | 49 | 67 | 0.0 | 1.7 | 0.01 | 0.18 | 0.03 | 92 | 1011.8 |
| 20260506000902 | 51 | 265 | 0.0 | 1.7 | 0.00 | 0.16 | 0.15 | 92 | 1012.7 |
| 20260506000819 | 51 | 282 | 0.9 | 2.6 | 0.00 | 0.16 | 0.15 | 92 | 1012.8 |
| 20260506000806 | 49 | 67 | 0.0 | 1.7 | 0.01 | 0.18 | 0.03 | 92 | 1011.9 |
| 20260506000738 | 51 | 238 | 0.9 | 2.6 | 0.00 | 0.16 | 0.15 | 92 | 1012.7 |
| 20260506000707 | 49 | 137 | 0.9 | 3.5 | 0.01 | 0.18 | 0.03 | 92 | 1011.9 |
| 20260506000608 | 49 | 137 | 0.9 | 3.5 | 0.01 | 0.18 | 0.03 | 92 | 1011.9 |
| 20260506000548 | 51 | 247 | 0.9 | 2.6 | 0.00 | 0.16 | 0.15 | 92 | 1012.7 |
| 20260506000518 | 49 | 111 | 0.9 | 3.5 | 0.01 | 0.18 | 0.03 | 92 | 1011.8 |
| 20260506000434 | 49 | 119 | 0.9 | 3.5 | 0.01 | 0.18 | 0.03 | 92 | 1011.9 |
| 20260506000354 | 49 | 330 | 0.9 | 3.5 | 0.01 | 0.18 | 0.03 | 92 | 1012.0 |
| 20260506000136 | 49 | 9 | 0.0 | 3.5 | 0.01 | 0.18 | 0.03 | 92 | 1011.9 |
| 20260505235858 | 49 | 205 | 1.7 | 3.5 | 0.01 | 0.18 | 0.03 | 92 | 1011.9 |
| 20260505235759 | 49 | 178 | 1.7 | 3.5 | 0.01 | 0.18 | 0.03 | 92 | 1011.9 |
| 20260505235735 | 51 | 221 | 0.9 | 2.6 | 0.00 | 0.16 | 0.15 | 92 | 1012.7 |
| 20260505235656 | 49 | 185 | 1.7 | 2.6 | 0.01 | 0.18 | 0.03 | 92 | 1011.9 |
| 20260505235556 | 49 | 212 | 1.7 | 2.6 | 0.01 | 0.18 | 0.03 | 92 | 1012.0 |
| 20260505235530 | 51 | 298 | 0.9 | 1.7 | 0.00 | 0.16 | 0.15 | 92 | 1012.8 |
| 20260505235449 | 49 | 173 | 0.9 | 2.6 | 0.01 | 0.18 | 0.03 | 92 | 1012.0 |
| 20260505235349 | 49 | 144 | 0.9 | 2.6 | 0.01 | 0.18 | 0.03 | 92 | 1012.0 |
| 20260505235308 | 51 | 229 | 0.9 | 1.7 | 0.00 | 0.16 | 0.15 | 92 | 1012.9 |
| 20260505235246 | 49 | 178 | 0.9 | 2.6 | 0.01 | 0.18 | 0.03 | 92 | 1012.0 |
| 20260505235147 | 49 | 188 | 0.9 | 2.6 | 0.01 | 0.18 | 0.03 | 92 | 1012.0 |
| 20260505235134 | 51 | 265 | 0.9 | 1.7 | 0.00 | 0.16 | 0.15 | 91 | 1012.9 |
| 20260505235045 | 49 | 178 | 1.7 | 2.6 | 0.01 | 0.18 | 0.03 | 92 | 1011.9 |
| 20260505234945 | 49 | 168 | 1.7 | 2.6 | 0.01 | 0.18 | 0.03 | 92 | 1012.0 |
| 20260505234900 | 49 | 178 | 1.7 | 2.6 | 0.01 | 0.18 | 0.03 | 92 | 1012.0 |
| 20260505234814 | 49 | 201 | 1.7 | 2.6 | 0.00 | 0.17 | 0.03 | 92 | 1012.0 |
| 20260505234531 | 49 | 205 | 0.9 | 1.7 | 0.00 | 0.17 | 0.02 | 92 | 1012.0 |
| 20260505234516 | 51 | 229 | 0.9 | 1.7 | 0.00 | 0.17 | 0.15 | 91 | 1012.9 |
| 20260505234453 | 51 | 238 | 0.9 | 1.7 | 0.00 | 0.17 | 0.15 | 91 | 1012.9 |
| 20260505234428 | 49 | 200 | 0.9 | 1.7 | 0.00 | 0.17 | 0.02 | 92 | 1012.0 |
| 20260505234342 | 49 | 178 | 0.9 | 1.7 | 0.00 | 0.17 | 0.02 | 92 | 1012.0 |
| 20260505234230 | 49 | 146 | 0.9 | 1.7 | 0.00 | 0.17 | 0.02 | 91 | 1012.0 |
| 20260505234214 | 51 | 250 | 0.9 | 1.7 | 0.00 | 0.17 | 0.15 | 91 | 1012.9 |
| 20260505234128 | 49 | 178 | 0.9 | 1.7 | 0.00 | 0.17 | 0.02 | 92 | 1012.0 |
| 20260505234027 | 49 | 221 | 0.0 | 1.7 | 0.00 | 0.17 | 0.02 | 91 | 1012.0 |
| 20260505233955 | 51 | 238 | 0.9 | 1.7 | 0.00 | 0.17 | 0.15 | 91 | 1012.9 |
| 20260505233927 | 49 | 247 | 0.0 | 1.7 | 0.00 | 0.17 | 0.02 | 91 | 1012.0 |
| 20260505233832 | 49 | 265 | 0.0 | 1.7 | 0.00 | 0.17 | 0.02 | 91 | 1012.0 |
| 20260505233756 | 49 | 93 | 0.9 | 1.7 | 0.00 | 0.17 | 0.02 | 91 | 1012.1 |
| 20260505233519 | 49 | 193 | 0.9 | 1.7 | 0.01 | 0.17 | 0.02 | 91 | 1012.1 |
| 20260505233443 | 51 | 247 | 0.0 | 1.7 | 0.00 | 0.17 | 0.15 | 91 | 1013.0 |
| 20260505233417 | 49 | 238 | 0.9 | 1.7 | 0.01 | 0.17 | 0.02 | 91 | 1012.1 |
| 20260505233331 | 49 | 282 | 0.9 | 1.7 | 0.01 | 0.17 | 0.02 | 91 | 1012.2 |
| 20260505233250 | 49 | 282 | 0.0 | 1.7 | 0.01 | 0.17 | 0.02 | 91 | 1012.1 |
| 20260505233211 | 49 | 279 | 0.9 | 1.7 | 0.01 | 0.17 | 0.02 | 91 | 1012.1 |
| 20260505232945 | 49 | 265 | 0.9 | 1.7 | 0.02 | 0.17 | 0.02 | 91 | 1012.1 |
| 20260505232902 | 49 | 221 | 0.9 | 1.7 | 0.02 | 0.17 | 0.02 | 91 | 1012.1 |
| 20260505232715 | 49 | 298 | 0.9 | 1.7 | 0.02 | 0.17 | 0.02 | 91 | 1012.1 |
| 20260505232633 | 50 | 282 | 0.9 | 1.7 | 0.02 | 0.17 | 0.02 | 92 | 1012.1 |
| 20260505232556 | 50 | 291 | 0.9 | 1.7 | 0.02 | 0.17 | 0.02 | 91 | 1012.1 |
| 20260505232501 | 50 | 282 | 0.9 | 1.7 | 0.02 | 0.17 | 0.02 | 91 | 1012.0 |
| 20260505232416 | 50 | 282 | 0.9 | 1.7 | 0.02 | 0.17 | 0.02 | 91 | 1012.0 |
| 20260505231951 | 50 | 221 | 0.0 | 1.7 | 0.02 | 0.17 | 0.02 | 92 | 1012.0 |
| 20260505231903 | 51 | 286 | 0.0 | 2.6 | 0.00 | 0.17 | 0.15 | 91 | 1012.9 |
| 20260505231849 | 50 | 291 | 0.0 | 1.7 | 0.02 | 0.17 | 0.02 | 92 | 1012.1 |
| 20260505231807 | 50 | 291 | 0.0 | 1.7 | 0.02 | 0.17 | 0.02 | 92 | 1012.1 |
| 20260505231735 | 50 | 265 | 0.9 | 1.7 | 0.02 | 0.17 | 0.02 | 92 | 1012.0 |
| 20260505231641 | 50 | 221 | 0.9 | 1.7 | 0.02 | 0.17 | 0.02 | 92 | 1012.0 |
| 20260505231439 | 50 | 205 | 0.0 | 1.7 | 0.02 | 0.17 | 0.02 | 92 | 1012.2 |
| 20260505231350 | 50 | 153 | 0.0 | 1.7 | 0.02 | 0.17 | 0.02 | 92 | 1012.2 |
| 20260505231253 | 51 | 137 | 0.9 | 1.7 | 0.00 | 0.17 | 0.15 | 91 | 1012.9 |
| 20260505231238 | 50 | 221 | 0.0 | 1.7 | 0.02 | 0.17 | 0.02 | 92 | 1012.1 |
| 20260505231222 | 51 | 146 | 0.9 | 1.7 | 0.00 | 0.17 | 0.15 | 91 | 1012.8 |
| 20260505231140 | 50 | 221 | 0.0 | 1.7 | 0.02 | 0.17 | 0.02 | 92 | 1012.1 |
| 20260505231103 | 50 | 178 | 0.0 | 1.7 | 0.02 | 0.17 | 0.02 | 92 | 1012.1 |
| 20260505230913 | 51 | 168 | 0.9 | 1.7 | 0.00 | 0.17 | 0.15 | 91 | 1012.8 |
| 20260505230846 | 51 | 178 | 0.9 | 1.7 | 0.00 | 0.17 | 0.15 | 91 | 1012.7 |
| 20260505230826 | 50 | 265 | 0.0 | 1.7 | 0.02 | 0.17 | 0.02 | 92 | 1012.1 |
| 20260505230722 | 50 | 212 | 0.0 | 1.7 | 0.02 | 0.17 | 0.02 | 92 | 1012.1 |
| 20260505230619 | 50 | 221 | 0.9 | 1.7 | 0.02 | 0.17 | 0.02 | 92 | 1012.2 |
| 20260505230517 | 50 | 232 | 0.0 | 1.7 | 0.02 | 0.17 | 0.02 | 92 | 1012.2 |
| 20260505230430 | 50 | 221 | 0.0 | 1.7 | 0.02 | 0.17 | 0.02 | 92 | 1012.2 |
| 20260505230317 | 50 | 205 | 0.9 | 1.7 | 0.02 | 0.17 | 0.02 | 92 | 1012.2 |
| 20260505230235 | 50 | 215 | 0.9 | 1.7 | 0.02 | 0.17 | 0.02 | 92 | 1012.1 |
| 20260505230155 | 50 | 254 | 0.9 | 1.7 | 0.02 | 0.17 | 0.02 | 92 | 1012.1 |
| 20260505225944 | 51 | 309 | 0.9 | 1.7 | 0.00 | 0.21 | 0.15 | 91 | 1012.5 |
| 20260505225919 | 50 | 212 | 0.9 | 1.7 | 0.02 | 0.17 | 0.02 | 92 | 1012.1 |
| 20260505225833 | 50 | 205 | 0.9 | 1.7 | 0.02 | 0.17 | 0.02 | 92 | 1012.2 |
| 20260505225750 | 50 | 217 | 0.9 | 1.7 | 0.02 | 0.17 | 0.02 | 92 | 1012.1 |
| 20260505225542 | 51 | 212 | 0.9 | 1.7 | 0.00 | 0.21 | 0.15 | 91 | 1012.5 |
| 20260505225508 | 50 | 209 | 0.9 | 2.6 | 0.02 | 0.17 | 0.02 | 92 | 1012.2 |
| 20260505225407 | 50 | 196 | 0.0 | 2.6 | 0.02 | 0.17 | 0.02 | 92 | 1012.1 |
| 20260505225355 | 51 | 153 | 0.9 | 1.7 | 0.00 | 0.23 | 0.15 | 91 | 1012.5 |
| 20260505225308 | 50 | 205 | 0.0 | 2.6 | 0.02 | 0.17 | 0.02 | 92 | 1012.1 |
| 20260505225207 | 50 | 137 | 0.9 | 2.6 | 0.02 | 0.17 | 0.02 | 92 | 1012.1 |
| 20260505225108 | 50 | 153 | 0.9 | 2.6 | 0.02 | 0.17 | 0.02 | 92 | 1012.2 |
| 20260505225032 | 50 | 165 | 0.9 | 2.6 | 0.02 | 0.17 | 0.02 | 92 | 1012.2 |
| 20260505224949 | 50 | 170 | 0.9 | 2.6 | 0.02 | 0.17 | 0.02 | 92 | 1012.2 |
| 20260505224704 | 50 | 161 | 0.9 | 4.3 | 0.02 | 0.17 | 0.02 | 92 | 1012.2 |
| 20260505224625 | 50 | 205 | 0.9 | 4.3 | 0.02 | 0.17 | 0.02 | 92 | 1012.1 |
| 20260505224542 | 50 | 163 | 0.9 | 4.3 | 0.02 | 0.17 | 0.02 | 92 | 1012.2 |
| 20260505224258 | 50 | 44 | 0.9 | 5.2 | 0.02 | 0.17 | 0.02 | 92 | 1012.1 |
| 20260505224214 | 52 | 119 | 1.7 | 2.6 | 0.00 | 0.25 | 0.15 | 91 | 1012.2 |
| 20260505224156 | 50 | 119 | 0.9 | 5.2 | 0.02 | 0.17 | 0.02 | 92 | 1012.2 |
| 20260505224105 | 50 | 314 | 1.7 | 7.0 | 0.02 | 0.17 | 0.02 | 92 | 1012.2 |
| 20260505224023 | 50 | 316 | 2.6 | 7.0 | 0.02 | 0.17 | 0.02 | 92 | 1012.2 |
| 20260505223939 | 51 | 44 | 2.6 | 7.0 | 0.02 | 0.17 | 0.02 | 92 | 1012.2 |
| 20260505223854 | 51 | 336 | 2.6 | 7.0 | 0.02 | 0.17 | 0.02 | 92 | 1012.3 |
| 20260505223811 | 51 | 312 | 3.5 | 7.0 | 0.02 | 0.17 | 0.02 | 92 | 1012.4 |
| 20260505223413 | 52 | 149 | 1.7 | 2.6 | 0.00 | 0.25 | 0.15 | 91 | 1012.2 |
| 20260505223346 | 51 | 347 | 3.5 | 7.0 | 0.02 | 0.17 | 0.02 | 92 | 1012.4 |
| 20260505223245 | 51 | 337 | 4.3 | 7.0 | 0.02 | 0.17 | 0.02 | 92 | 1012.4 |
| 20260505223146 | 51 | 316 | 3.5 | 7.0 | 0.02 | 0.17 | 0.02 | 92 | 1012.4 |
| 20260505223107 | 51 | 332 | 3.5 | 7.0 | 0.02 | 0.17 | 0.02 | 92 | 1012.4 |
| 20260505223027 | 51 | 304 | 3.5 | 7.0 | 0.01 | 0.16 | 0.01 | 92 | 1012.5 |
| 20260505222943 | 51 | 317 | 4.3 | 7.0 | 0.00 | 0.15 | 0.01 | 92 | 1012.4 |
| 20260505222859 | 51 | 298 | 4.3 | 7.0 | 0.00 | 0.15 | 0.00 | 92 | 1012.6 |
| 20260505222816 | 51 | 321 | 3.5 | 6.1 | 0.00 | 0.15 | 0.00 | 92 | 1012.5 |
| 20260505222555 | 51 | 296 | 1.7 | 5.2 | 0.00 | 0.15 | 0.00 | 92 | 1012.4 |
| 20260505222511 | 51 | 309 | 1.7 | 5.2 | 0.00 | 0.15 | 0.00 | 92 | 1012.4 |
| 20260505222131 | 51 | 295 | 1.7 | 2.6 | 0.00 | 0.15 | 0.00 | 92 | 1012.4 |
| 20260505222038 | 51 | 305 | 1.7 | 2.6 | 0.00 | 0.15 | 0.00 | 92 | 1012.4 |
| 20260505221953 | 51 | 265 | 0.9 | 2.6 | 0.00 | 0.15 | 0.00 | 92 | 1012.4 |
| 20260505221912 | 51 | 303 | 0.9 | 2.6 | 0.00 | 0.15 | 0.00 | 92 | 1012.4 |
| 20260505221626 | 51 | 250 | 0.9 | 2.6 | 0.00 | 0.15 | 0.00 | 92 | 1012.4 |
| 20260505221541 | 51 | 254 | 1.7 | 2.6 | 0.00 | 0.15 | 0.00 | 92 | 1012.4 |
| 20260505221454 | 51 | 221 | 0.9 | 2.6 | 0.00 | 0.15 | 0.00 | 92 | 1012.4 |
| 20260505221411 | 51 | 212 | 0.9 | 1.7 | 0.00 | 0.15 | 0.00 | 92 | 1012.5 |
| 20260505221326 | 51 | 221 | 0.9 | 1.7 | 0.00 | 0.15 | 0.00 | 92 | 1012.4 |
| 20260505221245 | 51 | 221 | 0.9 | 1.7 | 0.00 | 0.15 | 0.00 | 92 | 1012.4 |
| 20260505221205 | 51 | 265 | 0.9 | 1.7 | 0.00 | 0.15 | 0.00 | 92 | 1012.5 |
| 20260505220937 | 51 | 232 | 0.9 | 2.6 | 0.00 | 0.15 | 0.00 | 92 | 1012.5 |
| 20260505220852 | 51 | 243 | 0.9 | 2.6 | 0.00 | 0.15 | 0.00 | 92 | 1012.5 |
| 20260505220812 | 51 | 215 | 0.9 | 2.6 | 0.00 | 0.15 | 0.00 | 92 | 1012.5 |
| 20260505220730 | 51 | 247 | 0.9 | 2.6 | 0.00 | 0.15 | 0.00 | 92 | 1012.5 |
| 20260505220654 | 51 | 193 | 0.9 | 2.6 | 0.00 | 0.15 | 0.00 | 92 | 1012.5 |
| 20260505220610 | 51 | 193 | 0.9 | 2.6 | 0.00 | 0.15 | 0.00 | 92 | 1012.5 |
| 20260505220524 | 51 | 200 | 0.9 | 2.6 | 0.00 | 0.15 | 0.00 | 92 | 1012.6 |
| 20260505220443 | 51 | 279 | 0.9 | 2.6 | 0.00 | 0.15 | 0.00 | 92 | 1012.6 |
| 20260505220220 | 51 | 234 | 0.9 | 2.6 | 0.00 | 0.15 | 0.15 | 92 | 1012.6 |
| 20260505220138 | 51 | 221 | 0.9 | 1.7 | 0.00 | 0.15 | 0.15 | 92 | 1012.7 |
| 20260505220053 | 51 | 298 | 0.9 | 1.7 | 0.00 | 0.15 | 0.15 | 92 | 1012.7 |
| 20260505215835 | 51 | 221 | 0.9 | 1.7 | 0.00 | 0.16 | 0.15 | 92 | 1012.6 |
| 20260505215759 | 51 | 221 | 0.9 | 1.7 | 0.00 | 0.16 | 0.15 | 92 | 1012.7 |
| 20260505215534 | 51 | 205 | 0.9 | 1.7 | 0.00 | 0.16 | 0.15 | 92 | 1012.6 |
| 20260505214953 | 51 | 247 | 0.9 | 1.7 | 0.00 | 0.16 | 0.15 | 92 | 1012.7 |
| 20260505214911 | 51 | 309 | 0.9 | 1.7 | 0.00 | 0.16 | 0.15 | 92 | 1012.7 |
| 20260505214503 | 51 | 51 | 0.9 | 2.6 | 0.00 | 0.16 | 0.15 | 92 | 1012.7 |
| 20260505214037 | 51 | 282 | 0.9 | 2.6 | 0.00 | 0.16 | 0.15 | 92 | 1012.7 |
| 20260505213940 | 51 | 221 | 0.9 | 2.6 | 0.00 | 0.16 | 0.15 | 92 | 1012.7 |
| 20260505213858 | 51 | 51 | 0.9 | 2.6 | 0.00 | 0.16 | 0.15 | 92 | 1012.7 |
| 20260505213811 | 51 | 221 | 0.9 | 2.6 | 0.00 | 0.16 | 0.15 | 92 | 1012.7 |
| 20260505213529 | 51 | 221 | 1.7 | 2.6 | 0.00 | 0.16 | 0.15 | 92 | 1012.8 |
| 20260505213424 | 51 | 232 | 0.9 | 2.6 | 0.00 | 0.16 | 0.15 | 92 | 1012.8 |
| 20260505213346 | 51 | 254 | 0.9 | 2.6 | 0.00 | 0.16 | 0.15 | 92 | 1012.7 |
| 20260505213301 | 51 | 236 | 0.9 | 2.6 | 0.00 | 0.16 | 0.15 | 92 | 1012.8 |
| 20260505213206 | 51 | 221 | 0.9 | 2.6 | 0.00 | 0.16 | 0.15 | 92 | 1012.7 |
| 20260505213003 | 52 | 178 | 0.0 | 3.5 | 0.00 | 0.30 | 0.15 | 90 | 1011.9 |
| 20260505212923 | 51 | 265 | 1.7 | 2.6 | 0.00 | 0.16 | 0.15 | 92 | 1012.8 |
| 20260505212831 | 51 | 238 | 1.7 | 2.6 | 0.00 | 0.16 | 0.15 | 92 | 1012.7 |
| 20260505212745 | 51 | 280 | 1.7 | 2.6 | 0.00 | 0.16 | 0.15 | 92 | 1012.7 |
| 20260505212704 | 51 | 279 | 0.9 | 2.6 | 0.00 | 0.16 | 0.15 | 92 | 1012.8 |
| 20260505212422 | 51 | 265 | 0.9 | 1.7 | 0.00 | 0.16 | 0.15 | 92 | 1012.8 |
| 20260505212338 | 51 | 309 | 0.9 | 1.7 | 0.00 | 0.16 | 0.15 | 92 | 1012.8 |
| 20260505212251 | 51 | 9 | 0.9 | 1.7 | 0.00 | 0.16 | 0.15 | 92 | 1012.9 |
| 20260505212211 | 51 | 232 | 0.9 | 1.7 | 0.00 | 0.16 | 0.15 | 92 | 1012.8 |
| 20260505211948 | 51 | 250 | 0.9 | 1.7 | 0.00 | 0.16 | 0.15 | 92 | 1012.9 |
| 20260505211903 | 51 | 247 | 0.9 | 1.7 | 0.00 | 0.16 | 0.15 | 92 | 1012.8 |
| 20260505211655 | 52 | 205 | 0.9 | 2.6 | 0.00 | 0.33 | 0.15 | 90 | 1011.9 |
| 20260505211605 | 51 | 298 | 0.9 | 1.7 | 0.00 | 0.16 | 0.15 | 91 | 1012.9 |
| 20260505211514 | 51 | 238 | 0.9 | 1.7 | 0.00 | 0.16 | 0.15 | 91 | 1012.9 |
| 20260505211436 | 51 | 205 | 0.9 | 1.7 | 0.00 | 0.17 | 0.15 | 91 | 1012.9 |
| 20260505211353 | 51 | 265 | 0.9 | 1.7 | 0.00 | 0.17 | 0.15 | 91 | 1012.9 |
| 20260505211306 | 51 | 229 | 0.9 | 1.7 | 0.00 | 0.17 | 0.15 | 91 | 1012.9 |
| 20260505211223 | 51 | 221 | 0.9 | 1.7 | 0.00 | 0.17 | 0.15 | 91 | 1012.9 |
| 20260505211129 | 51 | 215 | 0.9 | 1.7 | 0.00 | 0.17 | 0.15 | 91 | 1012.9 |
| 20260505210715 | 52 | 238 | 0.9 | 1.7 | 0.00 | 0.35 | 0.15 | 90 | 1011.9 |
| 20260505210649 | 51 | 250 | 0.9 | 1.7 | 0.00 | 0.17 | 0.15 | 91 | 1013.0 |
| 20260505210610 | 51 | 238 | 0.9 | 1.7 | 0.00 | 0.17 | 0.15 | 91 | 1012.9 |
| 20260505210529 | 51 | 221 | 0.9 | 1.7 | 0.00 | 0.17 | 0.15 | 91 | 1013.0 |
| 20260505210241 | 51 | 265 | 0.9 | 1.7 | 0.00 | 0.17 | 0.15 | 91 | 1012.9 |
| 20260505210204 | 51 | 221 | 0.9 | 1.7 | 0.00 | 0.17 | 0.15 | 91 | 1012.9 |
| 20260505210122 | 51 | 265 | 0.9 | 1.7 | 0.00 | 0.17 | 0.15 | 91 | 1012.9 |
| 20260505210035 | 51 | 236 | 0.9 | 1.7 | 0.00 | 0.17 | 0.15 | 91 | 1012.9 |
| 20260505205805 | 51 | 205 | 1.7 | 1.7 | 0.00 | 0.17 | 0.15 | 91 | 1013.0 |
| 20260505205721 | 51 | 208 | 0.9 | 1.7 | 0.00 | 0.17 | 0.15 | 91 | 1013.0 |
| 20260505205643 | 51 | 217 | 0.9 | 1.7 | 0.00 | 0.17 | 0.15 | 91 | 1012.9 |
| 20260505205600 | 51 | 238 | 0.9 | 1.7 | 0.00 | 0.17 | 0.15 | 91 | 1013.0 |
| 20260505205521 | 51 | 250 | 0.9 | 1.7 | 0.00 | 0.17 | 0.15 | 91 | 1013.0 |
| 20260505205436 | 51 | 234 | 0.9 | 1.7 | 0.00 | 0.17 | 0.15 | 91 | 1013.0 |
| 20260505205039 | 51 | 265 | 0.9 | 2.6 | 0.00 | 0.17 | 0.15 | 91 | 1013.0 |
| 20260505204955 | 51 | 265 | 0.9 | 2.6 | 0.00 | 0.17 | 0.15 | 91 | 1013.0 |
| 20260505204910 | 51 | 215 | 0.9 | 2.6 | 0.00 | 0.17 | 0.15 | 91 | 1013.0 |
| 20260505204828 | 51 | 247 | 0.0 | 2.6 | 0.00 | 0.17 | 0.15 | 91 | 1012.9 |
| 20260505204441 | 51 | 232 | 1.7 | 2.6 | 0.00 | 0.17 | 0.15 | 91 | 1012.9 |
| 20260505204359 | 51 | 247 | 1.7 | 2.6 | 0.00 | 0.17 | 0.15 | 91 | 1012.9 |
| 20260505204315 | 51 | 325 | 0.9 | 2.6 | 0.00 | 0.17 | 0.15 | 91 | 1012.9 |
| 20260505204239 | 51 | 309 | 0.9 | 1.7 | 0.00 | 0.17 | 0.15 | 91 | 1012.9 |
| 20260505203839 | 51 | 146 | 0.9 | 1.7 | 0.00 | 0.17 | 0.15 | 91 | 1012.7 |
| 20260505203434 | 51 | 205 | 0.9 | 1.7 | 0.00 | 0.17 | 0.15 | 91 | 1012.7 |
| 20260505203350 | 51 | 265 | 0.9 | 1.7 | 0.00 | 0.17 | 0.15 | 91 | 1012.7 |
| 20260505203205 | 52 | 161 | 0.0 | 1.7 | 0.00 | 0.35 | 0.15 | 90 | 1011.9 |
| 20260505203150 | 51 | 254 | 0.9 | 2.6 | 0.00 | 0.17 | 0.15 | 91 | 1012.7 |
| 20260505203051 | 51 | 265 | 0.9 | 3.5 | 0.00 | 0.17 | 0.15 | 91 | 1012.7 |
| 20260505203039 | 52 | 221 | 0.9 | 1.7 | 0.00 | 0.35 | 0.15 | 90 | 1011.9 |
| 20260505202948 | 51 | 279 | 0.0 | 3.5 | 0.00 | 0.17 | 0.15 | 91 | 1012.7 |
| 20260505202848 | 51 | 232 | 0.9 | 3.5 | 0.00 | 0.18 | 0.15 | 91 | 1012.7 |
| 20260505202749 | 51 | 212 | 0.9 | 3.5 | 0.00 | 0.18 | 0.15 | 91 | 1012.6 |
| 20260505202722 | 53 | 196 | 0.9 | 2.6 | 0.00 | 0.39 | 0.15 | 91 | 1012.0 |
| 20260505202645 | 51 | 221 | 0.0 | 3.5 | 0.00 | 0.18 | 0.15 | 91 | 1012.6 |
| 20260505202544 | 51 | 279 | 0.9 | 3.5 | 0.00 | 0.19 | 0.15 | 91 | 1012.5 |
| 20260505202445 | 51 | 275 | 0.9 | 3.5 | 0.00 | 0.19 | 0.15 | 91 | 1012.5 |
| 20260505202353 | 51 | 273 | 1.7 | 3.5 | 0.00 | 0.19 | 0.15 | 91 | 1012.6 |
| 20260505202308 | 51 | 309 | 2.6 | 3.5 | 0.00 | 0.20 | 0.15 | 91 | 1012.4 |
| 20260505202229 | 51 | 315 | 1.7 | 3.5 | 0.00 | 0.20 | 0.15 | 91 | 1012.5 |
| 20260505202147 | 51 | 312 | 0.9 | 2.6 | 0.00 | 0.20 | 0.15 | 91 | 1012.5 |
| 20260505202106 | 51 | 325 | 0.0 | 1.7 | 0.00 | 0.20 | 0.15 | 91 | 1012.5 |
| 20260505201650 | 51 | 93 | 0.9 | 1.7 | 0.00 | 0.22 | 0.15 | 91 | 1012.5 |
| 20260505201606 | 51 | 137 | 0.9 | 1.7 | 0.00 | 0.22 | 0.15 | 91 | 1012.4 |
| 20260505201420 | 51 | 196 | 0.9 | 1.7 | 0.00 | 0.23 | 0.15 | 91 | 1012.5 |
| 20260505201358 | 52 | 221 | 0.9 | 2.6 | 0.00 | 0.45 | 0.15 | 90 | 1012.0 |
| 20260505201319 | 51 | 153 | 0.9 | 1.7 | 0.00 | 0.23 | 0.15 | 91 | 1012.5 |
| 20260505201220 | 51 | 153 | 0.0 | 1.7 | 0.00 | 0.24 | 0.15 | 91 | 1012.5 |
| 20260505201119 | 51 | 238 | 0.9 | 2.6 | 0.00 | 0.24 | 0.15 | 91 | 1012.5 |
| 20260505201019 | 51 | 265 | 0.9 | 2.6 | 0.00 | 0.24 | 0.15 | 91 | 1012.5 |
| 20260505200949 | 52 | 232 | 0.9 | 2.6 | 0.00 | 0.47 | 0.15 | 90 | 1012.1 |
| 20260505200915 | 52 | 205 | 0.9 | 2.6 | 0.00 | 0.24 | 0.15 | 91 | 1012.4 |
| 20260505200813 | 52 | 131 | 0.9 | 2.6 | 0.00 | 0.24 | 0.15 | 91 | 1012.4 |
| 20260505200714 | 52 | 126 | 0.0 | 2.6 | 0.00 | 0.24 | 0.15 | 91 | 1012.4 |
| 20260505200654 | 52 | 232 | 0.9 | 3.5 | 0.00 | 0.50 | 0.15 | 91 | 1012.1 |
| 20260505200617 | 52 | 137 | 0.0 | 2.6 | 0.00 | 0.24 | 0.15 | 91 | 1012.4 |
| 20260505200513 | 52 | 153 | 0.9 | 2.6 | 0.00 | 0.24 | 0.15 | 91 | 1012.4 |
| 20260505200410 | 52 | 178 | 0.9 | 2.6 | 0.00 | 0.24 | 0.15 | 91 | 1012.4 |
| 20260505200300 | 52 | 137 | 1.7 | 2.6 | 0.00 | 0.24 | 0.15 | 91 | 1012.3 |
| 20260505200209 | 52 | 131 | 0.9 | 2.6 | 0.00 | 0.24 | 0.15 | 91 | 1012.3 |
| 20260505200127 | 52 | 124 | 0.9 | 2.6 | 0.00 | 0.24 | 0.15 | 91 | 1012.2 |
| 20260505200034 | 52 | 137 | 1.7 | 2.6 | 0.00 | 0.25 | 0.15 | 91 | 1012.3 |
| 20260505195758 | 52 | 110 | 0.9 | 2.6 | 0.00 | 0.25 | 0.15 | 91 | 1012.2 |
| 20260505195742 | 52 | 178 | 0.9 | 3.5 | 0.00 | 0.53 | 0.15 | 91 | 1011.9 |
| 20260505195650 | 52 | 119 | 1.7 | 2.6 | 0.00 | 0.25 | 0.15 | 91 | 1012.2 |
| 20260505195611 | 52 | 108 | 1.7 | 2.6 | 0.00 | 0.25 | 0.15 | 91 | 1012.2 |
| 20260505195529 | 52 | 110 | 0.9 | 2.6 | 0.00 | 0.25 | 0.15 | 91 | 1012.2 |
| 20260505195445 | 52 | 109 | 0.9 | 2.6 | 0.00 | 0.25 | 0.15 | 91 | 1012.2 |
| 20260505195403 | 52 | 119 | 1.7 | 2.6 | 0.00 | 0.25 | 0.15 | 91 | 1012.2 |
| 20260505195139 | 52 | 123 | 0.9 | 1.7 | 0.00 | 0.25 | 0.15 | 90 | 1012.2 |
| 20260505194938 | 52 | 137 | 0.9 | 1.7 | 0.00 | 0.25 | 0.15 | 90 | 1012.2 |
| 20260505194918 | 52 | 236 | 0.9 | 3.5 | 0.00 | 0.53 | 0.15 | 91 | 1012.0 |
| 20260505194842 | 52 | 119 | 0.9 | 1.7 | 0.00 | 0.25 | 0.15 | 90 | 1012.2 |
| 20260505194758 | 52 | 111 | 0.9 | 1.7 | 0.00 | 0.25 | 0.15 | 90 | 1012.1 |
| 20260505194712 | 52 | 123 | 0.9 | 1.7 | 0.00 | 0.25 | 0.15 | 90 | 1012.1 |
| 20260505194430 | 52 | 108 | 0.9 | 1.7 | 0.00 | 0.26 | 0.15 | 90 | 1012.1 |
| 20260505194328 | 52 | 93 | 0.9 | 1.7 | 0.00 | 0.26 | 0.15 | 90 | 1012.1 |
| 20260505194226 | 52 | 80 | 0.9 | 1.7 | 0.00 | 0.26 | 0.15 | 90 | 1012.1 |
| 20260505194126 | 52 | 105 | 1.7 | 1.7 | 0.00 | 0.26 | 0.15 | 90 | 1012.1 |
| 20260505194030 | 52 | 119 | 0.9 | 1.7 | 0.00 | 0.26 | 0.15 | 90 | 1012.0 |
| 20260505193949 | 52 | 126 | 0.9 | 1.7 | 0.00 | 0.26 | 0.15 | 90 | 1012.1 |
| 20260505193906 | 52 | 129 | 0.9 | 1.7 | 0.00 | 0.26 | 0.15 | 90 | 1012.0 |
| 20260505193709 | 52 | 243 | 1.7 | 6.1 | 0.01 | 0.61 | 0.15 | 90 | 1012.0 |
| 20260505193616 | 52 | 119 | 0.9 | 1.7 | 0.00 | 0.27 | 0.15 | 90 | 1012.0 |
| 20260505193533 | 52 | 119 | 0.9 | 1.7 | 0.00 | 0.27 | 0.15 | 90 | 1012.0 |
| 20260505193453 | 52 | 153 | 0.9 | 1.7 | 0.00 | 0.27 | 0.15 | 90 | 1012.0 |
| 20260505193223 | 52 | 129 | 0.0 | 1.7 | 0.00 | 0.27 | 0.15 | 90 | 1011.9 |
| 20260505193140 | 52 | 146 | 0.0 | 0.9 | 0.00 | 0.27 | 0.15 | 90 | 1012.0 |
| 20260505193104 | 52 | 93 | 0.0 | 0.9 | 0.00 | 0.27 | 0.15 | 90 | 1012.0 |
| 20260505192909 | 52 | 93 | 0.0 | 0.9 | 0.00 | 0.27 | 0.15 | 90 | 1012.0 |
| 20260505192809 | 52 | 325 | 0.0 | 0.9 | 0.00 | 0.27 | 0.15 | 90 | 1012.0 |
| 20260505192801 | 52 | 236 | 1.7 | 8.7 | 0.02 | 0.61 | 0.15 | 90 | 1012.0 |
| 20260505192707 | 52 | 309 | 0.0 | 0.9 | 0.00 | 0.27 | 0.15 | 90 | 1012.0 |
| 20260505192610 | 52 | 291 | 0.0 | 0.9 | 0.00 | 0.27 | 0.15 | 90 | 1012.0 |
| 20260505192548 | 52 | 219 | 1.7 | 6.1 | 0.02 | 0.61 | 0.15 | 91 | 1012.0 |
| 20260505192507 | 52 | 212 | 0.0 | 0.9 | 0.00 | 0.27 | 0.15 | 90 | 1012.0 |
| 20260505192404 | 52 | 137 | 0.9 | 0.9 | 0.00 | 0.27 | 0.15 | 90 | 1011.9 |
| 20260505192350 | 52 | 275 | 2.6 | 7.0 | 0.02 | 0.61 | 0.15 | 90 | 1012.0 |
| 20260505192258 | 52 | 111 | 0.0 | 0.9 | 0.00 | 0.27 | 0.15 | 90 | 1011.9 |
| 20260505192243 | 52 | 261 | 1.7 | 7.0 | 0.03 | 0.61 | 0.15 | 91 | 1012.0 |
| 20260505192153 | 52 | 111 | 0.0 | 0.9 | 0.00 | 0.27 | 0.15 | 90 | 1011.9 |
| 20260505192108 | 52 | 221 | 0.0 | 0.9 | 0.00 | 0.27 | 0.15 | 90 | 1011.9 |
| 20260505192033 | 52 | 51 | 0.0 | 0.9 | 0.00 | 0.27 | 0.15 | 90 | 1011.9 |
| 20260505191957 | 52 | 51 | 0.0 | 0.9 | 0.00 | 0.28 | 0.15 | 90 | 1011.8 |
| 20260505191605 | 51 | 248 | 3.5 | 7.8 | 0.05 | 0.61 | 0.15 | 90 | 1011.9 |
| 20260505191536 | 52 | 41 | 0.0 | 0.9 | 0.00 | 0.28 | 0.15 | 90 | 1011.9 |
| 20260505191512 | 51 | 198 | 2.6 | 8.7 | 0.06 | 0.61 | 0.15 | 90 | 1011.9 |
| 20260505191454 | 51 | 287 | 1.7 | 8.7 | 0.06 | 0.61 | 0.15 | 90 | 1011.8 |
| 20260505191429 | 52 | 41 | 0.0 | 0.9 | 0.00 | 0.28 | 0.15 | 90 | 1011.9 |
| 20260505191358 | 52 | 41 | 0.0 | 0.9 | 0.00 | 0.28 | 0.15 | 90 | 1011.9 |
| 20260505191315 | 52 | 93 | 0.0 | 0.9 | 0.00 | 0.28 | 0.15 | 90 | 1011.9 |
| 20260505191115 | 52 | 93 | 0.0 | 1.7 | 0.00 | 0.28 | 0.15 | 90 | 1011.9 |
| 20260505191016 | 52 | 93 | 0.0 | 1.7 | 0.00 | 0.28 | 0.15 | 90 | 1011.9 |
| 20260505190952 | 51 | 221 | 3.5 | 8.7 | 0.09 | 0.61 | 0.15 | 90 | 1012.1 |
| 20260505190914 | 52 | 221 | 0.0 | 1.7 | 0.00 | 0.28 | 0.15 | 90 | 1011.9 |
| 20260505190851 | 51 | 273 | 3.5 | 10.4 | 0.09 | 0.61 | 0.15 | 90 | 1012.1 |
| 20260505190813 | 52 | 221 | 0.0 | 1.7 | 0.00 | 0.28 | 0.15 | 90 | 1011.9 |
| 20260505190710 | 52 | 221 | 0.0 | 1.7 | 0.00 | 0.28 | 0.15 | 90 | 1011.9 |
| 20260505190631 | 51 | 243 | 3.5 | 10.4 | 0.11 | 0.61 | 0.15 | 90 | 1012.1 |
| 20260505190610 | 52 | 119 | 0.0 | 1.7 | 0.00 | 0.28 | 0.15 | 90 | 1011.9 |
| 20260505190535 | 52 | 119 | 0.0 | 1.7 | 0.00 | 0.28 | 0.15 | 90 | 1011.9 |
| 20260505190457 | 52 | 137 | 0.9 | 1.7 | 0.00 | 0.28 | 0.15 | 90 | 1011.9 |
| 20260505190231 | 52 | 193 | 0.9 | 1.7 | 0.00 | 0.28 | 0.15 | 90 | 1012.0 |
| 20260505190153 | 52 | 158 | 0.9 | 1.7 | 0.00 | 0.28 | 0.15 | 90 | 1011.9 |
| 20260505190109 | 52 | 212 | 0.9 | 1.7 | 0.00 | 0.28 | 0.15 | 90 | 1011.9 |
| 20260505190017 | 52 | 137 | 0.9 | 1.7 | 0.00 | 0.28 | 0.15 | 90 | 1011.9 |
| 20260505185607 | 52 | 193 | 0.0 | 1.7 | 0.00 | 0.28 | 0.15 | 90 | 1011.9 |
| 20260505185527 | 52 | 221 | 0.0 | 0.9 | 0.00 | 0.28 | 0.15 | 90 | 1011.9 |
| 20260505185348 | 52 | 196 | 0.0 | 0.9 | 0.00 | 0.28 | 0.15 | 90 | 1011.9 |
| 20260505185245 | 52 | 205 | 0.0 | 0.9 | 0.00 | 0.28 | 0.15 | 90 | 1011.9 |
| 20260505185135 | 52 | 205 | 0.0 | 0.9 | 0.00 | 0.28 | 0.15 | 90 | 1011.9 |
| 20260505185044 | 52 | 205 | 0.0 | 0.9 | 0.00 | 0.28 | 0.15 | 90 | 1011.9 |
| 20260505185008 | 52 | 221 | 0.0 | 1.7 | 0.00 | 0.28 | 0.15 | 90 | 1011.9 |
| 20260505184934 | 52 | 238 | 0.0 | 1.7 | 0.00 | 0.28 | 0.15 | 90 | 1011.9 |
| 20260505184736 | 52 | 205 | 0.0 | 1.7 | 0.00 | 0.28 | 0.15 | 90 | 1011.9 |
| 20260505184630 | 52 | 309 | 0.0 | 1.7 | 0.00 | 0.28 | 0.15 | 90 | 1011.9 |
| 20260505184530 | 52 | 205 | 0.0 | 1.7 | 0.00 | 0.28 | 0.15 | 90 | 1011.9 |
| 20260505184447 | 51 | 288 | 3.5 | 9.6 | 0.13 | 0.66 | 0.14 | 88 | 1012.3 |
| 20260505184427 | 52 | 178 | 0.0 | 1.7 | 0.00 | 0.29 | 0.15 | 90 | 1011.9 |
| 20260505184328 | 52 | 325 | 0.0 | 1.7 | 0.00 | 0.29 | 0.15 | 90 | 1011.8 |
| 20260505184227 | 52 | 309 | 0.0 | 1.7 | 0.00 | 0.29 | 0.15 | 90 | 1011.9 |
| 20260505184126 | 52 | 325 | 0.9 | 3.5 | 0.00 | 0.29 | 0.15 | 90 | 1011.8 |
| 20260505184042 | 52 | 238 | 0.0 | 3.5 | 0.00 | 0.29 | 0.15 | 90 | 1011.9 |
| 20260505184002 | 52 | 334 | 0.0 | 3.5 | 0.00 | 0.29 | 0.15 | 90 | 1011.9 |
| 20260505183732 | 52 | 316 | 0.0 | 3.5 | 0.00 | 0.30 | 0.15 | 90 | 1011.8 |
| 20260505183648 | 52 | 265 | 0.9 | 3.5 | 0.00 | 0.30 | 0.15 | 90 | 1011.9 |
| 20260505183611 | 52 | 221 | 0.9 | 3.5 | 0.00 | 0.30 | 0.15 | 90 | 1011.9 |
| 20260505183528 | 52 | 279 | 0.9 | 3.5 | 0.00 | 0.31 | 0.15 | 90 | 1011.9 |
| 20260505183301 | 52 | 309 | 0.9 | 3.5 | 0.00 | 0.31 | 0.15 | 90 | 1011.9 |
| 20260505183214 | 52 | 238 | 0.9 | 2.6 | 0.00 | 0.31 | 0.15 | 90 | 1011.9 |
| 20260505183135 | 52 | 279 | 0.9 | 2.6 | 0.00 | 0.31 | 0.15 | 90 | 1011.8 |
| 20260505182728 | 52 | 9 | 0.9 | 1.7 | 0.00 | 0.33 | 0.15 | 90 | 1011.9 |
| 20260505182643 | 52 | 238 | 0.9 | 1.7 | 0.00 | 0.33 | 0.15 | 90 | 1011.9 |
| 20260505182600 | 52 | 93 | 0.0 | 1.7 | 0.00 | 0.34 | 0.15 | 90 | 1011.9 |
| 20260505182519 | 52 | 153 | 0.9 | 1.7 | 0.00 | 0.34 | 0.15 | 90 | 1011.9 |
| 20260505182259 | 52 | 247 | 0.9 | 1.7 | 0.00 | 0.35 | 0.15 | 90 | 1012.0 |
| 20260505182214 | 52 | 165 | 0.9 | 1.7 | 0.00 | 0.35 | 0.15 | 90 | 1012.0 |
| 20260505181814 | 52 | 265 | 0.0 | 1.7 | 0.00 | 0.35 | 0.15 | 90 | 1012.0 |
| 20260505181737 | 52 | 291 | 0.9 | 1.7 | 0.00 | 0.35 | 0.15 | 90 | 1011.9 |
| 20260505181455 | 52 | 205 | 0.0 | 1.7 | 0.00 | 0.36 | 0.15 | 90 | 1011.9 |
| 20260505181351 | 52 | 165 | 0.0 | 1.7 | 0.00 | 0.36 | 0.15 | 90 | 1011.9 |
| 20260505181249 | 52 | 265 | 0.9 | 1.7 | 0.00 | 0.36 | 0.15 | 90 | 1011.9 |
| 20260505181224 | 56 | 243 | 14.8 | 24.3 | 0.06 | 0.59 | 0.06 | 79 | 1011.2 |
| 20260505181151 | 52 | 232 | 0.9 | 2.6 | 0.00 | 0.37 | 0.15 | 90 | 1012.0 |
| 20260505181051 | 52 | 254 | 0.9 | 2.6 | 0.00 | 0.37 | 0.15 | 90 | 1011.9 |
| 20260505181010 | 52 | 200 | 0.9 | 2.6 | 0.00 | 0.38 | 0.15 | 90 | 1011.9 |
| 20260505180928 | 52 | 209 | 0.9 | 2.6 | 0.00 | 0.39 | 0.15 | 90 | 1012.0 |
| 20260505180643 | 53 | 168 | 0.9 | 2.6 | 0.00 | 0.39 | 0.15 | 90 | 1011.9 |
| 20260505180553 | 53 | 205 | 0.9 | 2.6 | 0.00 | 0.41 | 0.15 | 91 | 1012.0 |
| 20260505180458 | 53 | 247 | 0.9 | 2.6 | 0.00 | 0.42 | 0.15 | 91 | 1012.0 |
| 20260505180420 | 53 | 265 | 1.7 | 2.6 | 0.00 | 0.43 | 0.15 | 91 | 1011.9 |
| 20260505180327 | 53 | 238 | 0.9 | 2.6 | 0.00 | 0.43 | 0.15 | 91 | 1012.1 |
| 20260505180240 | 53 | 254 | 0.9 | 2.6 | 0.00 | 0.43 | 0.15 | 91 | 1011.9 |
| 20260505180158 | 53 | 238 | 0.9 | 2.6 | 0.00 | 0.44 | 0.15 | 91 | 1011.9 |
| 20260505175734 | 52 | 165 | 0.9 | 2.6 | 0.00 | 0.45 | 0.15 | 90 | 1011.9 |
| 20260505175701 | 58 | 300 | 5.2 | 11.3 | 0.03 | 0.57 | 0.03 | 81 | 1010.8 |
| 20260505175627 | 52 | 232 | 0.9 | 2.6 | 0.00 | 0.46 | 0.15 | 90 | 1011.9 |
| 20260505175526 | 52 | 238 | 0.9 | 2.6 | 0.00 | 0.46 | 0.15 | 90 | 1011.9 |
| 20260505175444 | 52 | 265 | 0.9 | 2.6 | 0.00 | 0.46 | 0.15 | 90 | 1012.0 |
| 20260505175359 | 52 | 265 | 0.9 | 2.6 | 0.00 | 0.46 | 0.15 | 90 | 1012.0 |
| 20260505175316 | 52 | 178 | 1.7 | 2.6 | 0.00 | 0.46 | 0.15 | 90 | 1012.0 |
| 20260505175229 | 52 | 188 | 0.9 | 2.6 | 0.00 | 0.47 | 0.15 | 90 | 1012.1 |
| 20260505175148 | 52 | 178 | 0.9 | 2.6 | 0.00 | 0.47 | 0.15 | 90 | 1012.0 |
| 20260505174814 | 52 | 282 | 1.7 | 3.5 | 0.00 | 0.47 | 0.15 | 90 | 1012.0 |
| 20260505174802 | 59 | 288 | 7.0 | 12.2 | 0.02 | 0.56 | 0.02 | 81 | 1010.7 |
| 20260505174701 | 52 | 229 | 1.7 | 3.5 | 0.00 | 0.48 | 0.15 | 90 | 1012.1 |
| 20260505174621 | 59 | 268 | 7.0 | 12.2 | 0.02 | 0.56 | 0.02 | 80 | 1010.6 |
| 20260505174558 | 52 | 217 | 0.9 | 3.5 | 0.00 | 0.49 | 0.15 | 90 | 1012.1 |
| 20260505174516 | 52 | 153 | 0.9 | 3.5 | 0.00 | 0.49 | 0.15 | 90 | 1012.1 |
| 20260505174434 | 52 | 178 | 0.9 | 3.5 | 0.00 | 0.49 | 0.15 | 90 | 1012.1 |
| 20260505174153 | 52 | 247 | 0.9 | 3.5 | 0.00 | 0.50 | 0.15 | 91 | 1012.1 |
| 20260505174052 | 52 | 265 | 1.7 | 3.5 | 0.00 | 0.50 | 0.15 | 91 | 1012.1 |
| 20260505174038 | 59 | 265 | 2.6 | 4.3 | 0.01 | 0.54 | 0.01 | 80 | 1010.4 |
| 20260505173949 | 52 | 254 | 0.9 | 3.5 | 0.00 | 0.50 | 0.15 | 91 | 1012.1 |
| 20260505173921 | 59 | 297 | 3.5 | 4.3 | 0.00 | 0.54 | 0.01 | 77 | 1010.4 |
| 20260505173850 | 52 | 149 | 0.9 | 2.6 | 0.00 | 0.50 | 0.15 | 91 | 1012.1 |
| 20260505173748 | 52 | 221 | 1.7 | 2.6 | 0.00 | 0.50 | 0.15 | 91 | 1012.0 |
| 20260505173650 | 52 | 291 | 0.9 | 2.6 | 0.00 | 0.51 | 0.15 | 91 | 1012.0 |
| 20260505173545 | 52 | 265 | 0.9 | 3.5 | 0.00 | 0.52 | 0.15 | 91 | 1012.0 |
| 20260505173445 | 52 | 193 | 0.9 | 3.5 | 0.00 | 0.52 | 0.15 | 91 | 1012.0 |
| 20260505173403 | 52 | 186 | 0.0 | 3.5 | 0.00 | 0.52 | 0.15 | 91 | 1011.9 |
| 20260505173320 | 52 | 232 | 0.9 | 3.5 | 0.00 | 0.52 | 0.15 | 91 | 1011.9 |
| 20260505173238 | 52 | 212 | 0.9 | 3.5 | 0.00 | 0.52 | 0.15 | 91 | 1011.9 |
| 20260505173158 | 52 | 178 | 0.9 | 3.5 | 0.00 | 0.53 | 0.15 | 90 | 1011.9 |
| 20260505172942 | 52 | 221 | 0.9 | 3.5 | 0.00 | 0.53 | 0.15 | 91 | 1012.0 |
| 20260505172716 | 52 | 273 | 0.9 | 3.5 | 0.00 | 0.53 | 0.15 | 91 | 1012.0 |
| 20260505172440 | 52 | 291 | 0.9 | 3.5 | 0.00 | 0.54 | 0.15 | 91 | 1012.0 |
| 20260505172401 | 52 | 243 | 0.9 | 3.5 | 0.00 | 0.54 | 0.15 | 91 | 1012.1 |
| 20260505172318 | 52 | 212 | 0.9 | 3.5 | 0.00 | 0.54 | 0.15 | 91 | 1012.1 |
| 20260505172125 | 52 | 196 | 1.7 | 3.5 | 0.00 | 0.55 | 0.15 | 91 | 1012.0 |
| 20260505172022 | 52 | 208 | 1.7 | 3.5 | 0.00 | 0.56 | 0.15 | 91 | 1012.0 |
| 20260505171922 | 52 | 195 | 0.9 | 3.5 | 0.00 | 0.57 | 0.15 | 91 | 1012.1 |
| 20260505171820 | 52 | 265 | 0.9 | 5.2 | 0.00 | 0.57 | 0.15 | 91 | 1012.0 |
| 20260505171718 | 52 | 238 | 0.9 | 5.2 | 0.00 | 0.58 | 0.15 | 91 | 1012.1 |
| 20260505171619 | 52 | 232 | 1.7 | 5.2 | 0.00 | 0.58 | 0.15 | 91 | 1012.1 |
| 20260505171550 | 61 | 288 | 3.5 | 6.1 | 0.00 | 0.54 | 0.00 | 71 | 1010.2 |
| 20260505171518 | 52 | 51 | 1.7 | 6.1 | 0.01 | 0.59 | 0.15 | 91 | 1012.0 |
| 20260505171432 | 52 | 238 | 1.7 | 6.1 | 0.01 | 0.60 | 0.15 | 91 | 1012.0 |
| 20260505171349 | 52 | 215 | 1.7 | 6.1 | 0.01 | 0.61 | 0.15 | 90 | 1012.0 |
| 20260505171306 | 51 | 205 | 1.7 | 6.1 | 0.01 | 0.61 | 0.15 | 90 | 1012.0 |
| 20260505171040 | 51 | 293 | 1.7 | 6.1 | 0.01 | 0.61 | 0.15 | 90 | 1012.0 |
| 20260505171000 | 51 | 298 | 1.7 | 6.1 | 0.01 | 0.61 | 0.15 | 90 | 1012.0 |
| 20260505170918 | 52 | 205 | 2.6 | 8.7 | 0.01 | 0.61 | 0.15 | 90 | 1012.0 |
| 20260505170634 | 52 | 238 | 1.7 | 8.7 | 0.01 | 0.61 | 0.15 | 90 | 1012.1 |
| 20260505170552 | 52 | 196 | 1.7 | 8.7 | 0.02 | 0.61 | 0.15 | 90 | 1012.0 |
| 20260505170511 | 52 | 321 | 1.7 | 8.7 | 0.02 | 0.61 | 0.15 | 90 | 1012.1 |
| 20260505170244 | 52 | 279 | 1.7 | 8.7 | 0.02 | 0.61 | 0.15 | 91 | 1012.0 |
| 20260505170200 | 52 | 249 | 3.5 | 8.7 | 0.02 | 0.61 | 0.15 | 90 | 1012.0 |
| 20260505170122 | 52 | 215 | 3.5 | 8.7 | 0.02 | 0.61 | 0.15 | 90 | 1012.1 |
| 20260505170025 | 52 | 298 | 1.7 | 8.7 | 0.02 | 0.61 | 0.15 | 90 | 1012.0 |
| 20260505165759 | 52 | 279 | 1.7 | 7.0 | 0.02 | 0.61 | 0.15 | 91 | 1012.0 |
| 20260505165714 | 52 | 265 | 1.7 | 7.0 | 0.02 | 0.61 | 0.15 | 91 | 1012.0 |
| 20260505165632 | 52 | 242 | 1.7 | 7.0 | 0.02 | 0.61 | 0.15 | 90 | 1011.9 |
| 20260505165553 | 52 | 254 | 1.7 | 7.0 | 0.02 | 0.61 | 0.15 | 90 | 1012.0 |
| 20260505165326 | 52 | 297 | 1.7 | 7.0 | 0.02 | 0.61 | 0.15 | 91 | 1012.0 |
| 20260505165243 | 52 | 309 | 2.6 | 7.0 | 0.03 | 0.61 | 0.15 | 91 | 1012.1 |
| 20260505165019 | 51 | 257 | 2.6 | 7.0 | 0.03 | 0.61 | 0.15 | 91 | 1012.0 |
| 20260505164938 | 51 | 265 | 2.6 | 7.0 | 0.04 | 0.61 | 0.15 | 91 | 1011.9 |
| 20260505164853 | 51 | 178 | 3.5 | 7.8 | 0.04 | 0.61 | 0.15 | 91 | 1012.0 |
| 20260505164629 | 51 | 309 | 2.6 | 7.8 | 0.05 | 0.61 | 0.15 | 90 | 1011.9 |
| 20260505164547 | 51 | 312 | 2.6 | 7.8 | 0.05 | 0.61 | 0.15 | 90 | 1011.9 |
| 20260505163934 | 51 | 319 | 1.7 | 8.7 | 0.07 | 0.61 | 0.15 | 90 | 1012.0 |
| 20260505163837 | 51 | 305 | 3.5 | 8.7 | 0.07 | 0.61 | 0.15 | 90 | 1011.9 |
| 20260505163825 | 61 | 341 | 2.6 | 6.1 | 0.00 | 0.54 | 0.00 | 72 | 1010.2 |
| 20260505163744 | 51 | 252 | 4.3 | 8.7 | 0.07 | 0.61 | 0.15 | 90 | 1012.0 |
| 20260505163700 | 51 | 286 | 3.5 | 8.7 | 0.08 | 0.61 | 0.15 | 90 | 1012.0 |
| 20260505163612 | 51 | 250 | 2.6 | 8.7 | 0.09 | 0.61 | 0.15 | 90 | 1012.0 |
| 20260505163350 | 51 | 252 | 3.5 | 8.7 | 0.09 | 0.61 | 0.15 | 90 | 1012.0 |
| 20260505163305 | 51 | 205 | 2.6 | 8.7 | 0.09 | 0.61 | 0.15 | 90 | 1012.1 |
| 20260505163018 | 51 | 282 | 4.3 | 10.4 | 0.09 | 0.61 | 0.15 | 90 | 1012.1 |
| 20260505162922 | 51 | 236 | 3.5 | 10.4 | 0.09 | 0.61 | 0.15 | 90 | 1012.1 |
| 20260505162841 | 51 | 250 | 3.5 | 10.4 | 0.09 | 0.61 | 0.15 | 90 | 1012.1 |
| 20260505162758 | 51 | 269 | 4.3 | 10.4 | 0.09 | 0.61 | 0.15 | 90 | 1012.1 |
| 20260505162717 | 51 | 294 | 3.5 | 10.4 | 0.10 | 0.61 | 0.15 | 90 | 1012.1 |
| 20260505162629 | 51 | 307 | 2.6 | 10.4 | 0.10 | 0.61 | 0.15 | 90 | 1012.1 |
| 20260505162233 | 61 | 344 | 3.5 | 6.1 | 0.00 | 0.54 | 0.00 | 72 | 1010.3 |
| 20260505162209 | 51 | 272 | 5.2 | 10.4 | 0.12 | 0.61 | 0.15 | 90 | 1012.2 |
| 20260505162130 | 61 | 342 | 3.5 | 6.1 | 0.00 | 0.54 | 0.00 | 72 | 1010.3 |
| 20260505162112 | 51 | 321 | 3.5 | 8.7 | 0.12 | 0.61 | 0.15 | 89 | 1012.2 |
| 20260505162012 | 51 | 261 | 4.3 | 10.4 | 0.12 | 0.61 | 0.15 | 89 | 1012.2 |
| 20260505162001 | 61 | 344 | 3.5 | 7.0 | 0.00 | 0.54 | 0.00 | 69 | 1010.2 |
| 20260505161908 | 51 | 296 | 4.3 | 10.4 | 0.12 | 0.61 | 0.15 | 89 | 1012.2 |
| 20260505161826 | 51 | 307 | 3.5 | 10.4 | 0.13 | 0.61 | 0.15 | 89 | 1012.3 |
| 20260505161727 | 51 | 246 | 2.6 | 10.4 | 0.13 | 0.61 | 0.15 | 89 | 1012.3 |
| 20260505161643 | 51 | 221 | 2.6 | 10.4 | 0.13 | 0.61 | 0.15 | 89 | 1012.3 |
| 20260505161401 | 51 | 282 | 3.5 | 10.4 | 0.12 | 0.61 | 0.14 | 89 | 1012.4 |
| 20260505161331 | 62 | 334 | 1.7 | 7.0 | 0.00 | 0.54 | 0.00 | 70 | 1010.3 |
| 20260505161259 | 51 | 232 | 5.2 | 10.4 | 0.12 | 0.61 | 0.14 | 89 | 1012.4 |
| 20260505161200 | 51 | 243 | 5.2 | 10.4 | 0.12 | 0.61 | 0.14 | 89 | 1012.4 |
| 20260505161059 | 51 | 323 | 2.6 | 10.4 | 0.12 | 0.61 | 0.14 | 89 | 1012.3 |
| 20260505161044 | 62 | 15 | 4.3 | 7.0 | 0.00 | 0.54 | 0.00 | 68 | 1010.3 |
| 20260505161021 | 62 | 344 | 2.6 | 7.0 | 0.00 | 0.54 | 0.00 | 67 | 1010.3 |
| 20260505160955 | 51 | 294 | 3.5 | 10.4 | 0.13 | 0.61 | 0.14 | 89 | 1012.4 |
| 20260505160855 | 51 | 238 | 5.2 | 10.4 | 0.13 | 0.62 | 0.14 | 88 | 1012.3 |
| 20260505160801 | 51 | 236 | 3.5 | 10.4 | 0.13 | 0.64 | 0.14 | 89 | 1012.3 |
| 20260505160717 | 51 | 273 | 3.5 | 7.8 | 0.13 | 0.64 | 0.14 | 88 | 1012.3 |
| 20260505160632 | 51 | 309 | 3.5 | 9.6 | 0.13 | 0.65 | 0.14 | 88 | 1012.3 |
| 20260505160349 | 51 | 309 | 2.6 | 9.6 | 0.13 | 0.66 | 0.13 | 88 | 1012.3 |
| 20260505160314 | 62 | 236 | 3.5 | 7.0 | 0.00 | 0.54 | 0.00 | 70 | 1010.3 |
| 20260505160246 | 51 | 307 | 1.7 | 9.6 | 0.13 | 0.66 | 0.13 | 88 | 1012.3 |
| 20260505160147 | 51 | 259 | 1.7 | 9.6 | 0.13 | 0.67 | 0.13 | 88 | 1012.4 |
| 20260505153351 | 61 | 321 | 3.5 | 7.8 | 0.00 | 0.54 | 0.00 | 69 | 1010.7 |
| 20260505153310 | 55 | 231 | 7.8 | 24.3 | 0.06 | 0.60 | 0.06 | 81 | 1011.6 |
| 20260505153223 | 55 | 238 | 11.3 | 24.3 | 0.06 | 0.59 | 0.06 | 81 | 1011.5 |
| 20260505153129 | 55 | 307 | 10.4 | 24.3 | 0.06 | 0.59 | 0.06 | 80 | 1011.5 |
| 20260505153045 | 56 | 291 | 13.0 | 24.3 | 0.06 | 0.59 | 0.06 | 80 | 1011.3 |
| 20260505152839 | 61 | 330 | 4.3 | 7.8 | 0.00 | 0.54 | 0.00 | 72 | 1010.7 |
| 20260505152802 | 56 | 325 | 16.5 | 24.3 | 0.06 | 0.59 | 0.06 | 80 | 1011.2 |
| 20260505152724 | 62 | 350 | 5.2 | 10.4 | 0.00 | 0.54 | 0.00 | 70 | 1010.7 |
| 20260505152701 | 57 | 301 | 15.6 | 23.5 | 0.05 | 0.58 | 0.06 | 80 | 1011.1 |
| 20260505152600 | 57 | 291 | 11.3 | 23.5 | 0.05 | 0.58 | 0.05 | 80 | 1011.0 |
| 20260505152458 | 58 | 245 | 7.8 | 17.4 | 0.05 | 0.58 | 0.05 | 82 | 1011.1 |
| 20260505152417 | 58 | 257 | 7.0 | 11.3 | 0.04 | 0.57 | 0.04 | 82 | 1011.1 |
| 20260505152338 | 58 | 305 | 5.2 | 11.3 | 0.04 | 0.57 | 0.04 | 82 | 1010.9 |
| 20260505152253 | 58 | 297 | 4.3 | 11.3 | 0.03 | 0.57 | 0.03 | 81 | 1010.9 |
| 20260505152159 | 58 | 250 | 6.1 | 11.3 | 0.03 | 0.57 | 0.03 | 81 | 1010.8 |
| 20260505152113 | 58 | 292 | 6.1 | 11.3 | 0.03 | 0.57 | 0.03 | 81 | 1010.8 |
| 20260505151852 | 58 | 282 | 5.2 | 12.2 | 0.02 | 0.56 | 0.03 | 81 | 1010.7 |
| 20260505151807 | 58 | 281 | 6.1 | 12.2 | 0.02 | 0.56 | 0.02 | 81 | 1010.7 |
| 20260505151349 | 59 | 298 | 6.1 | 12.2 | 0.02 | 0.56 | 0.02 | 80 | 1010.7 |
| 20260505151309 | 59 | 297 | 5.2 | 12.2 | 0.02 | 0.56 | 0.02 | 80 | 1010.7 |
| 20260505151224 | 59 | 269 | 6.1 | 12.2 | 0.02 | 0.56 | 0.02 | 80 | 1010.6 |
| 20260505150949 | 59 | 307 | 7.8 | 12.2 | 0.02 | 0.55 | 0.02 | 80 | 1010.6 |
| 20260505150907 | 59 | 298 | 7.0 | 12.2 | 0.02 | 0.55 | 0.02 | 80 | 1010.6 |
| 20260505150827 | 59 | 289 | 4.3 | 8.7 | 0.01 | 0.54 | 0.02 | 80 | 1010.5 |
| 20260505150743 | 59 | 277 | 2.6 | 8.7 | 0.01 | 0.54 | 0.01 | 81 | 1010.4 |
| 20260505150516 | 59 | 288 | 2.6 | 4.3 | 0.01 | 0.54 | 0.01 | 79 | 1010.5 |
| 20260505150434 | 59 | 323 | 3.5 | 4.3 | 0.00 | 0.54 | 0.01 | 78 | 1010.5 |
| 20260505150206 | 59 | 281 | 3.5 | 4.3 | 0.00 | 0.54 | 0.00 | 78 | 1010.4 |
| 20260505150123 | 60 | 277 | 3.5 | 4.3 | 0.00 | 0.54 | 0.00 | 78 | 1010.4 |
| 20260505140617 | 61 | 317 | 3.5 | 5.2 | 0.00 | 0.54 | 0.00 | 71 | 1010.2 |
| 20260505140519 | 61 | 332 | 3.5 | 5.2 | 0.00 | 0.54 | 0.00 | 71 | 1010.1 |
| 20260505140423 | 61 | 332 | 3.5 | 5.2 | 0.00 | 0.54 | 0.00 | 72 | 1010.1 |
| 20260505140353 | 60 | 22 | 5.2 | 8.7 | 0.00 | 0.54 | 0.00 | 70 | 1011.3 |
| 20260505140315 | 61 | 334 | 3.5 | 5.2 | 0.00 | 0.54 | 0.00 | 73 | 1010.1 |
| 20260505140235 | 61 | 336 | 3.5 | 5.2 | 0.00 | 0.54 | 0.00 | 71 | 1010.1 |
| 20260505140151 | 61 | 329 | 2.6 | 5.2 | 0.00 | 0.54 | 0.00 | 72 | 1010.1 |